PIA781 OPIS-CYYZ

Flight info

Callsign PIA781
Flight time 13h 19m
Altitude 32000
Route KALMI J139 NONIB L509 HANGU G796 LAJAK/N0494F320 L509 TAPIS M875 AMDAR/K0911F320 M161 ODIVA L162 URUSU/K0889F340 N984 RULEN T822 SOTIS P35 KUMEL L93 KELEK/N0490F340 DCT ENEXI DCT BETMA/N0490F360 DCT 74N000E/M083F360 74N020W 72N040W 70N050W/N0482F360 DCT KLIPS/N0487F380 DCT MT DCT ROSVO IMEBA9
Aircraft B77L/H-SDE1E2E3FGHIJ2J3J4J5M1RWXY/LB1D1

Departure

Time 2026-05-04 07:40
Airport Islamabad International Airport (OPIS)

Arrival

Time 2026-05-04 20:59
Airport Toronto Pearson International Airport (CYYZ)
Time Latitude Longitude Altitude Speed Heading
2026-05-04 07:26 33.55523 72.83015 1774 ft 2 kts 146°
2026-05-04 07:28 33.55610 72.82994 1773 ft 1 kts 236°
2026-05-04 07:28 33.55611 72.82995 1773 ft 0 kts 236°
2026-05-04 07:33 33.55422 72.82668 1777 ft 10 kts 231°
2026-05-04 07:33 33.55370 72.82623 1776 ft 10 kts 197°
2026-05-04 07:33 33.55302 72.82610 1776 ft 10 kts 189°
2026-05-04 07:33 33.55234 72.82598 1777 ft 10 kts 181°
2026-05-04 07:34 33.55186 72.82647 1776 ft 10 kts 109°
2026-05-04 07:34 33.55170 72.82736 1776 ft 15 kts 100°
2026-05-04 07:34 33.55147 72.82890 1775 ft 20 kts 100°
2026-05-04 07:34 33.55122 72.83055 1791 ft 20 kts 100°
2026-05-04 07:35 33.55097 72.83218 1776 ft 20 kts 100°
2026-05-04 07:35 33.55072 72.83383 1775 ft 20 kts 101°
2026-05-04 07:35 33.55047 72.83548 1774 ft 20 kts 96°
2026-05-04 07:35 33.55031 72.83712 1775 ft 20 kts 96°
2026-05-04 07:36 33.54998 72.83875 1776 ft 20 kts 105°
2026-05-04 07:36 33.54971 72.84039 1774 ft 20 kts 100°
2026-05-04 07:38 33.54615 72.84493 1771 ft 13 kts 191°
2026-05-04 07:38 33.54534 72.84463 1769 ft 10 kts 213°
2026-05-04 07:38 33.54523 72.84387 1768 ft 10 kts 277°
2026-05-04 07:38 33.54532 72.84330 1768 ft 12 kts 281°
2026-05-04 07:39 33.54580 72.84022 1770 ft 71 kts 281°
2026-05-04 07:39 33.54712 72.83172 1767 ft 134 kts 281°
2026-05-04 07:39 33.54919 72.81853 1766 ft 187 kts 280°
2026-05-04 07:39 33.55170 72.80169 1936 ft 209 kts 282°
2026-05-04 07:40 33.55435 72.78483 2454 ft 213 kts 282°
2026-05-04 07:40 33.55760 72.76682 2694 ft 227 kts 279°
2026-05-04 07:40 33.56052 72.74868 3369 ft 216 kts 277°
2026-05-04 07:40 33.56258 72.73110 3770 ft 216 kts 263°
2026-05-04 07:41 33.55723 72.71440 3867 ft 216 kts 222°
2026-05-04 07:41 33.54518 72.70380 4046 ft 223 kts 199°
2026-05-04 07:41 33.52969 72.70012 4221 ft 232 kts 173°
2026-05-04 07:41 33.51430 72.70556 4620 ft 236 kts 147°
2026-05-04 07:42 33.50167 72.71919 4978 ft 253 kts 123°
2026-05-04 07:42 33.49497 72.73856 5553 ft 255 kts 102°
2026-05-04 07:42 33.49107 72.75969 5973 ft 264 kts 103°
2026-05-04 07:42 33.48687 72.78126 6437 ft 272 kts 103°
2026-05-04 07:43 33.48309 72.80325 6903 ft 277 kts 94°
2026-05-04 07:43 33.48635 72.82674 7323 ft 285 kts 63°
2026-05-04 07:43 33.49850 72.84548 7856 ft 289 kts 37°
2026-05-04 07:43 33.51665 72.85610 8422 ft 291 kts 11°
2026-05-04 07:44 33.53672 72.85618 8964 ft 292 kts 340°
2026-05-04 07:44 33.55378 72.84357 9506 ft 289 kts 307°
2026-05-04 07:44 33.56233 72.82248 10023 ft 286 kts 276°
2026-05-04 07:44 33.56027 72.79882 10428 ft 291 kts 250°
2026-05-04 07:45 33.55419 72.77514 10547 ft 309 kts 257°
2026-05-04 07:45 33.55017 72.74896 10753 ft 328 kts 262°
2026-05-04 07:45 33.54776 72.72071 10918 ft 349 kts 265°
2026-05-04 07:45 33.54657 72.69148 11475 ft 354 kts 268°
2026-05-04 07:46 33.54612 72.66220 12497 ft 348 kts 269°
2026-05-04 07:46 33.54602 72.64263 12879 ft 355 kts 269°
2026-05-04 07:46 33.54609 72.60704 13315 ft 371 kts 269°
2026-05-04 07:46 33.54624 72.57944 13695 ft 381 kts 270°
2026-05-04 07:47 33.54646 72.54794 14392 ft 381 kts 270°
2026-05-04 07:47 33.54667 72.51741 15139 ft 381 kts 270°
2026-05-04 07:47 33.54686 72.48733 15908 ft 380 kts 270°
2026-05-04 07:49 33.54766 72.26721 19484 ft 412 kts 269°
2026-05-04 07:49 33.54773 72.23302 20003 ft 415 kts 269°
2026-05-04 07:49 33.54780 72.19680 20545 ft 418 kts 269°
2026-05-04 07:50 33.54787 72.16182 21067 ft 421 kts 269°
2026-05-04 07:50 33.54791 72.12680 21571 ft 424 kts 269°
2026-05-04 07:50 33.54795 72.09141 22059 ft 427 kts 269°
2026-05-04 07:50 33.54798 72.05602 22562 ft 430 kts 269°
2026-05-04 07:51 33.54792 72.01981 23065 ft 433 kts 268°
2026-05-04 07:51 33.54639 71.98301 23517 ft 436 kts 265°
2026-05-04 07:51 33.54405 71.94936 23897 ft 439 kts 264°
2026-05-04 07:51 33.54150 71.91322 24310 ft 442 kts 265°
2026-05-04 07:52 33.53934 71.87933 24691 ft 444 kts 265°
2026-05-04 07:52 33.53689 71.83827 25152 ft 447 kts 265°
2026-05-04 07:52 33.53493 71.80459 25526 ft 449 kts 265°
2026-05-04 07:52 33.53299 71.77106 25901 ft 451 kts 265°
2026-05-04 07:53 33.53082 71.73354 26297 ft 454 kts 265°
2026-05-04 07:54 33.51679 71.49784 28354 ft 467 kts 266°
2026-05-04 07:55 33.51444 71.45925 28717 ft 469 kts 266°
2026-05-04 07:55 33.51212 71.42132 29035 ft 471 kts 266°
2026-05-04 07:55 33.50974 71.38244 29346 ft 474 kts 266°
2026-05-04 07:55 33.50729 71.34277 29663 ft 476 kts 266°
2026-05-04 07:56 33.50483 71.30304 30026 ft 476 kts 266°
2026-05-04 07:56 33.50249 71.26545 30402 ft 474 kts 267°
2026-05-04 07:56 33.50005 71.22657 30816 ft 471 kts 267°
2026-05-04 07:56 33.49762 71.18814 31184 ft 470 kts 267°
2026-05-04 07:57 33.49514 71.14888 31539 ft 469 kts 267°
2026-05-04 07:57 33.49267 71.10983 31789 ft 471 kts 267°
2026-05-04 07:57 33.49327 71.03271 31850 ft 466 kts 286°
2026-05-04 07:58 33.50469 70.99666 31870 ft 463 kts 298°
2026-05-04 07:58 33.52210 70.96403 31869 ft 462 kts 309°
2026-05-04 07:58 33.56676 70.91250 31880 ft 461 kts 317°
2026-05-04 07:59 33.61423 70.86089 31892 ft 461 kts 316°
2026-05-04 07:59 33.65353 70.81724 31888 ft 461 kts 316°
2026-05-04 08:00 33.70055 70.76418 31892 ft 461 kts 316°
2026-05-04 08:02 33.88625 70.55331 31914 ft 456 kts 316°
2026-05-04 08:02 33.92903 70.49684 31908 ft 455 kts 307°
2026-05-04 08:03 33.96334 70.43307 31901 ft 454 kts 299°
2026-05-04 08:03 33.99300 70.36510 31899 ft 455 kts 298°
2026-05-04 08:04 34.02242 70.29734 31896 ft 455 kts 298°
2026-05-04 08:04 34.05183 70.23011 31900 ft 454 kts 299°
2026-05-04 08:05 34.08127 70.16299 31909 ft 453 kts 299°
2026-05-04 08:05 34.11066 70.09587 31904 ft 451 kts 299°
2026-05-04 08:06 34.13986 70.02897 31910 ft 451 kts 299°
2026-05-04 08:06 34.16915 69.96176 31903 ft 450 kts 299°
2026-05-04 08:08 34.28443 69.69489 31909 ft 446 kts 299°
2026-05-04 08:11 34.41304 69.39470 31926 ft 448 kts 298°
2026-05-04 08:11 34.45463 69.29701 31923 ft 448 kts 298°
2026-05-04 08:12 34.48309 69.23003 31916 ft 448 kts 298°
2026-05-04 08:12 34.51686 69.16730 31924 ft 445 kts 313°
2026-05-04 08:13 34.56348 69.11884 31912 ft 446 kts 327°
2026-05-04 08:13 34.61814 69.08313 31927 ft 447 kts 330°
2026-05-04 08:14 34.67333 69.04849 31926 ft 447 kts 330°
2026-05-04 08:16 34.89255 68.90690 31969 ft 446 kts 330°
2026-05-04 08:16 34.94731 68.87124 31987 ft 447 kts 330°
2026-05-04 08:17 35.00146 68.83593 32014 ft 448 kts 330°
2026-05-04 08:17 35.05639 68.80006 32033 ft 448 kts 330°
2026-05-04 08:19 35.27713 68.65534 32091 ft 452 kts 330°
2026-05-04 08:20 35.33258 68.61884 32097 ft 452 kts 330°
2026-05-04 08:20 35.38819 68.58218 32098 ft 451 kts 330°
2026-05-04 08:21 35.44317 68.54588 32094 ft 450 kts 330°
2026-05-04 08:21 35.49789 68.50970 32072 ft 449 kts 330°
2026-05-04 08:22 35.55286 68.47329 32071 ft 447 kts 330°
2026-05-04 08:24 35.77144 68.32716 32060 ft 448 kts 330°
2026-05-04 08:24 35.82617 68.29035 32069 ft 449 kts 330°
2026-05-04 08:25 35.87900 68.25479 32070 ft 451 kts 330°
2026-05-04 08:25 35.93491 68.21707 32062 ft 451 kts 330°
2026-05-04 08:27 36.14508 68.07478 32053 ft 448 kts 330°
2026-05-04 08:28 36.19997 68.03746 32059 ft 448 kts 330°
2026-05-04 08:28 36.25462 68.00025 32049 ft 449 kts 330°
2026-05-04 08:29 36.30953 67.96281 32042 ft 449 kts 330°
2026-05-04 08:31 36.52868 67.81276 32030 ft 450 kts 330°
2026-05-04 08:33 36.74853 67.66129 32016 ft 450 kts 330°
2026-05-04 08:35 36.96751 67.51021 32004 ft 450 kts 330°
2026-05-04 08:35 37.02163 67.47269 32008 ft 449 kts 330°
2026-05-04 08:37 37.21355 67.33982 32023 ft 450 kts 333°
2026-05-04 08:38 37.27059 67.30847 32030 ft 451 kts 336°
2026-05-04 08:38 37.32962 67.27689 32022 ft 452 kts 336°
2026-05-04 08:40 37.54502 67.15988 32014 ft 454 kts 335°
2026-05-04 08:41 37.61224 67.12312 32014 ft 454 kts 335°
2026-05-04 08:41 37.66064 67.09661 32023 ft 454 kts 335°
2026-05-04 08:42 37.71873 67.06475 32031 ft 454 kts 335°
2026-05-04 08:42 37.77663 67.03294 32029 ft 453 kts 335°
2026-05-04 08:43 37.81329 67.01277 32037 ft 453 kts 335°
2026-05-04 08:43 37.87140 66.98076 32041 ft 453 kts 335°
2026-05-04 08:44 37.92741 66.94984 32050 ft 453 kts 335°
2026-05-04 08:46 38.14817 66.82748 32068 ft 453 kts 335°
2026-05-04 08:46 38.20122 66.79797 32073 ft 454 kts 335°
2026-05-04 08:47 38.24840 66.77167 32071 ft 454 kts 335°
2026-05-04 08:47 38.30558 66.73975 32069 ft 455 kts 335°
2026-05-04 08:48 38.35845 66.71019 32061 ft 455 kts 335°
2026-05-04 08:48 38.41147 66.68049 32056 ft 455 kts 335°
2026-05-04 08:49 38.46985 66.64774 32049 ft 455 kts 335°
2026-05-04 08:50 38.65776 66.54191 32028 ft 454 kts 335°
2026-05-04 08:51 38.71598 66.50901 32029 ft 454 kts 335°
2026-05-04 08:51 38.76290 66.48242 32025 ft 454 kts 335°
2026-05-04 08:52 38.81323 66.45360 32021 ft 454 kts 335°
2026-05-04 08:52 38.85719 66.42832 32021 ft 454 kts 335°
2026-05-04 08:54 39.07762 66.30121 32017 ft 455 kts 335°
2026-05-04 08:55 39.13536 66.26779 32022 ft 455 kts 335°
2026-05-04 08:55 39.19310 66.23430 32018 ft 456 kts 335°
2026-05-04 09:01 39.80299 65.87712 32025 ft 460 kts 335°
2026-05-04 09:01 39.86134 65.84266 32027 ft 460 kts 335°
2026-05-04 09:02 39.92004 65.80792 32029 ft 461 kts 335°
2026-05-04 09:02 39.97449 65.77563 32030 ft 461 kts 335°
2026-05-04 09:03 40.03267 65.74107 32033 ft 461 kts 335°
2026-05-04 09:03 40.07982 65.71302 32027 ft 462 kts 335°
2026-05-04 09:04 40.14786 65.67246 32036 ft 462 kts 335°
2026-05-04 09:04 40.19687 65.64318 32039 ft 462 kts 335°
2026-05-04 09:05 40.25557 65.60806 32030 ft 463 kts 335°
2026-05-04 09:05 40.31426 65.57287 32032 ft 463 kts 335°
2026-05-04 09:06 40.37260 65.53783 32034 ft 464 kts 335°
2026-05-04 09:08 40.60777 65.39565 32021 ft 464 kts 335°
2026-05-04 09:08 40.66618 65.36016 32020 ft 465 kts 335°
2026-05-04 09:09 40.72491 65.32441 32027 ft 465 kts 335°
2026-05-04 09:09 40.78351 65.28866 32023 ft 466 kts 335°
2026-05-04 09:10 40.84239 65.25268 32018 ft 466 kts 335°
2026-05-04 09:10 40.90106 65.21676 32018 ft 467 kts 335°
2026-05-04 09:11 40.96037 65.18037 32018 ft 467 kts 335°
2026-05-04 09:11 41.01894 65.14436 32016 ft 468 kts 335°
2026-05-04 09:12 41.07791 65.10803 32018 ft 468 kts 335°
2026-05-04 09:14 41.31341 64.96205 32030 ft 470 kts 335°
2026-05-04 09:14 41.37260 64.92510 32030 ft 471 kts 335°
2026-05-04 09:15 41.43224 64.88781 32029 ft 471 kts 335°
2026-05-04 09:15 41.49169 64.85056 32032 ft 472 kts 334°
2026-05-04 09:17 41.76096 64.68088 32033 ft 474 kts 334°
2026-05-04 09:18 41.82067 64.64304 32032 ft 474 kts 334°
2026-05-04 09:18 41.88016 64.60526 32031 ft 474 kts 334°
2026-05-04 09:19 41.93971 64.56737 32030 ft 474 kts 334°
2026-05-04 09:19 41.99925 64.52940 32030 ft 475 kts 334°
2026-05-04 09:20 42.05908 64.49117 32029 ft 475 kts 334°
2026-05-04 09:20 42.11883 64.45291 32029 ft 475 kts 334°
2026-05-04 09:21 42.17843 64.41466 32032 ft 476 kts 334°
2026-05-04 09:21 42.23815 64.37626 32032 ft 476 kts 334°
2026-05-04 09:22 42.29831 64.33749 32033 ft 477 kts 334°
2026-05-04 09:22 42.35815 64.29884 32033 ft 477 kts 334°
2026-05-04 09:23 42.41791 64.26017 32032 ft 478 kts 334°
2026-05-04 09:23 42.47816 64.22109 32032 ft 478 kts 334°
2026-05-04 09:25 42.72027 64.07108 32029 ft 479 kts 336°
2026-05-04 09:26 42.78159 64.03539 32029 ft 479 kts 336°
2026-05-04 09:26 42.84251 63.99945 32028 ft 479 kts 335°
2026-05-04 09:27 42.90346 63.96329 32033 ft 479 kts 335°
2026-05-04 09:27 42.96473 63.92687 32031 ft 479 kts 335°
2026-05-04 09:28 43.02605 63.89036 32031 ft 479 kts 335°
2026-05-04 09:28 43.08711 63.85393 32032 ft 479 kts 335°
2026-05-04 09:29 43.14816 63.81743 32032 ft 480 kts 335°
2026-05-04 09:29 43.20892 63.78102 32032 ft 480 kts 335°
2026-05-04 09:30 43.26818 63.74543 32027 ft 480 kts 335°
2026-05-04 09:30 43.32815 63.70934 32030 ft 480 kts 335°
2026-05-04 09:31 43.38927 63.67247 32026 ft 480 kts 335°
2026-05-04 09:31 43.45057 63.63541 32030 ft 480 kts 335°
2026-05-04 09:32 43.51174 63.59837 32024 ft 480 kts 335°
2026-05-04 09:34 43.74622 63.45612 32022 ft 480 kts 334°
2026-05-04 09:34 43.80752 63.41865 32039 ft 480 kts 334°
2026-05-04 09:35 43.86887 63.38108 32040 ft 481 kts 334°
2026-05-04 09:35 43.92982 63.34368 32032 ft 481 kts 334°
2026-05-04 09:37 44.17446 63.19161 32036 ft 482 kts 334°
2026-05-04 09:38 44.23566 63.15337 32036 ft 482 kts 334°
2026-05-04 09:38 44.29882 63.11397 32033 ft 482 kts 334°
2026-05-04 09:39 44.35999 63.07572 32032 ft 482 kts 334°
2026-05-04 09:39 44.42131 63.03728 32037 ft 482 kts 334°
2026-05-04 09:40 44.48288 62.99858 32040 ft 483 kts 334°
2026-05-04 09:40 44.54431 62.95988 32039 ft 483 kts 334°
2026-05-04 09:42 44.78926 62.80463 32037 ft 484 kts 333°
2026-05-04 09:43 44.85096 62.76530 32044 ft 484 kts 333°
2026-05-04 09:43 44.91199 62.72631 32044 ft 484 kts 333°
2026-05-04 09:44 44.97320 62.68711 32041 ft 484 kts 333°
2026-05-04 09:46 45.21856 62.52903 32046 ft 484 kts 333°
2026-05-04 09:46 45.27994 62.48930 32039 ft 484 kts 333°
2026-05-04 09:47 45.34133 62.44945 32041 ft 484 kts 333°
2026-05-04 09:49 45.58636 62.28939 32044 ft 484 kts 333°
2026-05-04 09:51 45.80056 62.14818 32042 ft 484 kts 332°
2026-05-04 09:51 45.86186 62.10842 32039 ft 484 kts 334°
2026-05-04 09:52 45.92436 62.07203 32035 ft 484 kts 335°
2026-05-04 09:52 45.98681 62.03600 32032 ft 484 kts 335°
2026-05-04 09:53 46.04889 61.99945 32035 ft 484 kts 335°
2026-05-04 09:53 46.11113 61.96244 32039 ft 484 kts 335°
2026-05-04 09:54 46.17336 61.92536 32043 ft 484 kts 335°
2026-05-04 09:54 46.23566 61.88818 32031 ft 484 kts 335°
2026-05-04 09:55 46.29785 61.85103 32040 ft 484 kts 335°
2026-05-04 09:55 46.35994 61.81389 32042 ft 484 kts 335°
2026-05-04 09:56 46.42230 61.77648 32034 ft 484 kts 335°
2026-05-04 09:56 46.48430 61.73919 32038 ft 484 kts 335°
2026-05-04 09:57 46.54624 61.70184 32039 ft 483 kts 335°
2026-05-04 09:57 46.60837 61.66428 32040 ft 483 kts 335°
2026-05-04 09:58 46.67076 61.62647 32037 ft 483 kts 335°
2026-05-04 09:58 46.73269 61.58884 32035 ft 483 kts 335°
2026-05-04 10:00 46.98066 61.43704 32035 ft 483 kts 335°
2026-05-04 10:04 47.41482 61.16725 32022 ft 484 kts 334°
2026-05-04 10:04 47.46653 61.13479 32029 ft 484 kts 334°
2026-05-04 10:05 47.53875 61.08935 32021 ft 484 kts 334°
2026-05-04 10:05 47.60085 61.05016 32014 ft 484 kts 334°
2026-05-04 10:06 47.65252 61.01748 32016 ft 484 kts 334°
2026-05-04 10:06 47.71451 60.97818 32008 ft 483 kts 334°
2026-05-04 10:08 47.93031 60.84055 31998 ft 481 kts 334°
2026-05-04 10:08 47.99168 60.80119 31999 ft 481 kts 334°
2026-05-04 10:09 48.05321 60.76160 31993 ft 481 kts 334°
2026-05-04 10:09 48.11454 60.72206 31991 ft 480 kts 334°
2026-05-04 10:10 48.17576 60.68248 31990 ft 480 kts 334°
2026-05-04 10:10 48.23717 60.64268 31985 ft 480 kts 333°
2026-05-04 10:11 48.29874 60.60265 31984 ft 480 kts 333°
2026-05-04 10:11 48.35987 60.56280 31975 ft 479 kts 333°
2026-05-04 10:12 48.42071 60.52305 31976 ft 479 kts 333°
2026-05-04 10:12 48.48187 60.48297 31978 ft 479 kts 333°
2026-05-04 10:13 48.54312 60.44272 31967 ft 479 kts 333°
2026-05-04 10:13 48.60369 60.40283 31966 ft 478 kts 333°
2026-05-04 10:14 48.66513 60.36225 31963 ft 477 kts 333°
2026-05-04 10:16 48.90764 60.20101 31941 ft 476 kts 332°
2026-05-04 10:16 48.96823 60.16045 31946 ft 475 kts 332°
2026-05-04 10:17 49.02819 60.12022 31945 ft 475 kts 332°
2026-05-04 10:19 49.26474 59.96042 31950 ft 474 kts 331°
2026-05-04 10:19 49.32499 59.91945 31959 ft 473 kts 331°
2026-05-04 10:20 49.38453 59.87885 31954 ft 474 kts 331°
2026-05-04 10:20 49.44454 59.83783 31956 ft 473 kts 331°
2026-05-04 10:21 49.50517 59.79626 31957 ft 473 kts 331°
2026-05-04 10:21 49.56567 59.75469 31963 ft 473 kts 331°
2026-05-04 10:22 49.65349 59.69414 31962 ft 473 kts 330°
2026-05-04 10:23 49.71320 59.65284 31973 ft 473 kts 330°
2026-05-04 10:25 49.95356 59.48538 31968 ft 474 kts 330°
2026-05-04 10:25 50.01371 59.44319 31975 ft 475 kts 330°
2026-05-04 10:26 50.07465 59.40032 31962 ft 476 kts 330°
2026-05-04 10:26 50.13512 59.35768 31967 ft 476 kts 330°
2026-05-04 10:27 50.19559 59.31491 31973 ft 476 kts 330°
2026-05-04 10:27 50.25586 59.27217 31962 ft 476 kts 330°
2026-05-04 10:28 50.31582 59.22952 31956 ft 475 kts 330°
2026-05-04 10:28 50.37568 59.18682 31963 ft 475 kts 330°
2026-05-04 10:29 50.43412 59.14502 31962 ft 474 kts 330°
2026-05-04 10:29 50.49383 59.10219 31971 ft 474 kts 329°
2026-05-04 10:30 50.55384 59.05903 31957 ft 475 kts 329°
2026-05-04 10:30 50.60125 59.02484 31953 ft 474 kts 329°
2026-05-04 10:31 50.66333 58.97998 31960 ft 474 kts 329°
2026-05-04 10:32 50.87333 58.82720 31937 ft 472 kts 329°
2026-05-04 10:33 50.93005 58.78565 31950 ft 472 kts 329°
2026-05-04 10:33 50.98999 58.74162 31937 ft 472 kts 329°
2026-05-04 10:34 51.04978 58.69758 31942 ft 471 kts 328°
2026-05-04 10:34 51.10910 58.65376 31946 ft 471 kts 328°
2026-05-04 10:35 51.16834 58.60988 31923 ft 471 kts 328°
2026-05-04 10:35 51.22800 58.56555 31930 ft 471 kts 328°
2026-05-04 10:36 51.28730 58.52138 31930 ft 471 kts 328°
2026-05-04 10:36 51.34633 58.47728 31937 ft 471 kts 328°
2026-05-04 10:37 51.40574 58.43275 31938 ft 471 kts 328°
2026-05-04 10:37 51.45531 58.39551 31939 ft 471 kts 328°
2026-05-04 10:39 51.66000 58.25939 31948 ft 478 kts 332°
2026-05-04 10:40 51.71723 58.22398 31955 ft 478 kts 332°
2026-05-04 10:40 51.77282 58.18921 31956 ft 478 kts 331°
2026-05-04 10:41 51.83985 58.14707 32130 ft 481 kts 331°
2026-05-04 10:41 51.86682 58.13009 32462 ft 480 kts 331°
2026-05-04 10:41 51.89781 58.11055 32547 ft 484 kts 331°
2026-05-04 10:41 51.92622 58.09260 32698 ft 488 kts 331°
2026-05-04 10:42 51.95816 58.07243 32961 ft 489 kts 331°
2026-05-04 10:42 51.98930 58.05277 33303 ft 489 kts 331°
2026-05-04 10:42 52.02167 58.03229 33688 ft 487 kts 331°
2026-05-04 10:42 52.05308 58.01240 33918 ft 488 kts 331°
2026-05-04 10:43 52.08454 57.99244 33956 ft 490 kts 331°
2026-05-04 10:45 52.33751 57.83107 33982 ft 486 kts 331°
2026-05-04 10:45 52.38996 57.79720 33984 ft 487 kts 330°
2026-05-04 10:46 52.45357 57.75596 33990 ft 489 kts 330°
2026-05-04 10:46 52.51690 57.71478 33988 ft 489 kts 330°
2026-05-04 10:47 52.57990 57.67370 33980 ft 490 kts 330°
2026-05-04 10:47 52.64338 57.63220 33982 ft 490 kts 330°
2026-05-04 10:49 52.89548 57.46605 33967 ft 486 kts 330°
2026-05-04 10:50 52.95873 57.42403 33959 ft 485 kts 330°
2026-05-04 10:52 53.20982 57.25574 33941 ft 487 kts 329°
2026-05-04 10:52 53.27343 57.21258 33951 ft 487 kts 329°
2026-05-04 10:54 53.52610 57.04052 33941 ft 491 kts 329°
2026-05-04 10:56 53.78048 56.86509 33930 ft 495 kts 329°
2026-05-04 10:57 53.84420 56.82068 33942 ft 495 kts 329°
2026-05-04 10:57 53.90802 56.77671 33936 ft 496 kts 330°
2026-05-04 10:58 53.97162 56.73278 33918 ft 496 kts 330°
2026-05-04 10:58 54.03550 56.68795 33928 ft 495 kts 329°
2026-05-04 10:59 54.09910 56.64298 33925 ft 495 kts 330°
2026-05-04 10:59 54.16258 56.59802 33921 ft 495 kts 330°
2026-05-04 11:00 54.22601 56.55298 33928 ft 494 kts 330°
2026-05-04 11:02 54.47197 56.36645 33907 ft 483 kts 319°
2026-05-04 11:05 54.88689 55.86993 33886 ft 485 kts 321°
2026-05-04 11:06 54.94247 55.80245 33899 ft 485 kts 321°
2026-05-04 11:06 54.98902 55.74576 33894 ft 485 kts 321°
2026-05-04 11:10 55.37465 55.27261 33883 ft 482 kts 322°
2026-05-04 11:12 55.59267 54.99929 33884 ft 481 kts 323°
2026-05-04 11:12 55.64705 54.93048 33885 ft 480 kts 323°
2026-05-04 11:13 55.70108 54.86193 33890 ft 479 kts 323°
2026-05-04 11:13 55.75513 54.79309 33888 ft 478 kts 323°
2026-05-04 11:14 55.76403 54.78172 33886 ft 478 kts 323°
2026-05-04 11:16 56.02337 54.44778 33887 ft 473 kts 323°
2026-05-04 11:16 56.07673 54.37838 33887 ft 473 kts 323°
2026-05-04 11:17 56.13018 54.31018 33876 ft 474 kts 324°
2026-05-04 11:19 56.35045 54.04830 33879 ft 475 kts 325°
2026-05-04 11:19 56.40530 53.98200 33877 ft 475 kts 324°
2026-05-04 11:20 56.45920 53.91641 33879 ft 475 kts 324°
2026-05-04 11:20 56.51387 53.84953 33873 ft 475 kts 324°
2026-05-04 11:22 56.73420 53.57892 33872 ft 473 kts 324°
2026-05-04 11:23 56.78862 53.51148 33875 ft 473 kts 324°
2026-05-04 11:24 56.92513 53.25734 33870 ft 468 kts 308°
2026-05-04 11:25 56.94580 53.21162 33870 ft 468 kts 308°
2026-05-04 11:25 56.98751 53.11987 33864 ft 467 kts 308°
2026-05-04 11:27 57.17415 52.70727 33860 ft 466 kts 308°
2026-05-04 11:28 57.21528 52.61554 33862 ft 465 kts 308°
2026-05-04 11:28 57.25658 52.52301 33864 ft 465 kts 308°
2026-05-04 11:29 57.29771 52.43054 33855 ft 465 kts 308°
2026-05-04 11:29 57.33861 52.33822 33848 ft 465 kts 308°
2026-05-04 11:31 57.51768 52.12187 33846 ft 474 kts 342°
2026-05-04 11:33 57.73948 52.00692 33840 ft 476 kts 341°
2026-05-04 11:33 57.80302 51.97284 33837 ft 477 kts 341°
2026-05-04 11:34 57.86666 51.93861 33837 ft 477 kts 341°
2026-05-04 11:34 57.93042 51.90422 33826 ft 477 kts 341°
2026-05-04 11:35 57.99419 51.86972 33819 ft 477 kts 341°
2026-05-04 11:35 58.05839 51.83484 33824 ft 477 kts 341°
2026-05-04 11:36 58.12204 51.80014 33811 ft 477 kts 340°
2026-05-04 11:36 58.18558 51.76535 33811 ft 477 kts 341°
2026-05-04 11:37 58.24957 51.73021 33808 ft 477 kts 340°
2026-05-04 11:37 58.31312 51.69515 33810 ft 477 kts 340°
2026-05-04 11:38 58.37683 51.65989 33806 ft 477 kts 340°
2026-05-04 11:38 58.43893 51.61682 33805 ft 472 kts 330°
2026-05-04 11:39 58.49629 51.55697 33814 ft 471 kts 327°
2026-05-04 11:41 58.69700 51.34536 33798 ft 471 kts 328°
2026-05-04 11:41 58.75460 51.28429 33804 ft 472 kts 328°
2026-05-04 11:42 58.81196 51.22327 33792 ft 472 kts 328°
2026-05-04 11:42 58.86942 51.16195 33797 ft 471 kts 328°
2026-05-04 11:43 58.92680 51.10056 33798 ft 471 kts 328°
2026-05-04 11:43 58.98405 51.03914 33794 ft 471 kts 328°
2026-05-04 11:44 59.04159 50.97717 33779 ft 471 kts 328°
2026-05-04 11:44 59.09873 50.91511 33798 ft 470 kts 328°
2026-05-04 11:45 59.15571 50.85287 33783 ft 470 kts 328°
2026-05-04 11:45 59.21266 50.79048 33780 ft 470 kts 328°
2026-05-04 11:46 59.26978 50.72754 33789 ft 469 kts 327°
2026-05-04 11:46 59.32606 50.66389 33793 ft 469 kts 327°
2026-05-04 11:47 59.38279 50.59918 33791 ft 469 kts 327°
2026-05-04 11:47 59.43885 50.53518 33793 ft 468 kts 327°
2026-05-04 11:48 59.48595 50.48130 33794 ft 468 kts 327°
2026-05-04 11:48 59.54241 50.41646 33793 ft 468 kts 327°
2026-05-04 11:49 59.59851 50.35158 33796 ft 467 kts 326°
2026-05-04 11:49 59.65427 50.28610 33800 ft 467 kts 326°
2026-05-04 11:50 59.70971 50.22007 33794 ft 466 kts 326°
2026-05-04 11:50 59.76558 50.15338 33798 ft 466 kts 326°
2026-05-04 11:51 59.82090 50.08719 33790 ft 466 kts 326°
2026-05-04 11:51 59.87626 50.02073 33798 ft 465 kts 326°
2026-05-04 11:52 59.93057 49.95586 33798 ft 465 kts 326°
2026-05-04 11:52 59.98639 49.88912 33799 ft 465 kts 326°
2026-05-04 11:53 60.04224 49.82200 33793 ft 464 kts 326°
2026-05-04 11:53 60.09665 49.75326 33793 ft 463 kts 324°
2026-05-04 11:55 60.30664 49.47382 33787 ft 461 kts 324°
2026-05-04 11:56 60.35975 49.40298 33790 ft 460 kts 324°
2026-05-04 11:56 60.41294 49.33172 33784 ft 459 kts 324°
2026-05-04 11:57 60.46606 49.26026 33788 ft 459 kts 324°
2026-05-04 11:57 60.51905 49.18869 33786 ft 458 kts 324°
2026-05-04 11:58 60.57226 49.11655 33789 ft 457 kts 324°
2026-05-04 11:58 60.62486 49.04491 33788 ft 457 kts 323°
2026-05-04 11:59 60.67770 48.97268 33791 ft 456 kts 323°
2026-05-04 11:59 60.73059 48.90009 33793 ft 456 kts 323°
2026-05-04 12:00 60.78298 48.82790 33794 ft 456 kts 323°
2026-05-04 12:00 60.83336 48.75820 33794 ft 456 kts 323°
2026-05-04 12:01 60.88581 48.68536 33796 ft 455 kts 323°
2026-05-04 12:02 61.06806 48.42946 33802 ft 454 kts 323°
2026-05-04 12:03 61.10803 48.37304 33803 ft 453 kts 323°
2026-05-04 12:03 61.15983 48.29962 33806 ft 452 kts 323°
2026-05-04 12:04 61.21109 48.22668 33806 ft 452 kts 323°
2026-05-04 12:04 61.26296 48.15273 33806 ft 451 kts 323°
2026-05-04 12:05 61.31338 48.08062 33804 ft 451 kts 323°
2026-05-04 12:05 61.36518 48.00620 33814 ft 450 kts 323°
2026-05-04 12:06 61.41640 47.93232 33818 ft 449 kts 323°
2026-05-04 12:06 61.46795 47.85764 33823 ft 449 kts 322°
2026-05-04 12:07 61.51794 47.78492 33811 ft 448 kts 322°
2026-05-04 12:07 61.56798 47.71185 33810 ft 447 kts 322°
2026-05-04 12:08 61.61888 47.63722 33814 ft 446 kts 322°
2026-05-04 12:08 61.65138 47.58940 33816 ft 446 kts 322°
2026-05-04 12:09 61.70223 47.51432 33820 ft 445 kts 322°
2026-05-04 12:09 61.75189 47.44074 33817 ft 444 kts 322°
2026-05-04 12:10 61.78472 47.39193 33821 ft 444 kts 322°
2026-05-04 12:10 61.81719 47.34364 33819 ft 443 kts 322°
2026-05-04 12:11 61.85892 47.28165 33825 ft 442 kts 322°
2026-05-04 12:11 61.90931 47.20652 33827 ft 442 kts 322°
2026-05-04 12:12 61.95931 47.13154 33823 ft 441 kts 321°
2026-05-04 12:12 62.00812 47.05784 33828 ft 440 kts 321°
2026-05-04 12:14 62.20820 46.75264 33829 ft 438 kts 321°
2026-05-04 12:15 62.25781 46.67617 33831 ft 438 kts 321°
2026-05-04 12:15 62.30708 46.59994 33828 ft 438 kts 321°
2026-05-04 12:16 62.35606 46.52383 33836 ft 437 kts 320°
2026-05-04 12:16 62.40517 46.44719 33833 ft 437 kts 320°
2026-05-04 12:17 62.45437 46.37011 33837 ft 436 kts 320°
2026-05-04 12:17 62.50207 46.29505 33848 ft 435 kts 320°
2026-05-04 12:18 62.55125 46.21739 33829 ft 435 kts 320°
2026-05-04 12:18 62.59984 46.13967 33835 ft 434 kts 319°
2026-05-04 12:19 62.64735 46.05876 33836 ft 434 kts 317°
2026-05-04 12:19 62.69484 45.97653 33834 ft 434 kts 317°
2026-05-04 12:20 62.74067 45.89730 33838 ft 434 kts 317°
2026-05-04 12:20 62.78799 45.81548 33836 ft 433 kts 317°
2026-05-04 12:21 62.83544 45.73319 33840 ft 433 kts 317°
2026-05-04 12:21 62.88233 45.65154 33840 ft 433 kts 317°
2026-05-04 12:22 62.92913 45.56968 33839 ft 433 kts 317°
2026-05-04 12:22 62.97628 45.48687 33835 ft 432 kts 317°
2026-05-04 12:23 63.02327 45.40398 33846 ft 432 kts 317°
2026-05-04 12:23 63.06994 45.32131 33835 ft 432 kts 317°
2026-05-04 12:24 63.11686 45.23783 33840 ft 431 kts 317°
2026-05-04 12:24 63.16356 45.15438 33837 ft 431 kts 316°
2026-05-04 12:25 63.20989 45.07126 33840 ft 431 kts 316°
2026-05-04 12:25 63.25653 44.98720 33836 ft 431 kts 316°
2026-05-04 12:26 63.30366 44.90191 33836 ft 432 kts 316°
2026-05-04 12:26 63.35024 44.81728 33839 ft 432 kts 316°
2026-05-04 12:27 63.39682 44.73254 33840 ft 432 kts 316°
2026-05-04 12:27 63.44338 44.64764 33842 ft 432 kts 316°
2026-05-04 12:28 63.48932 44.56349 33844 ft 432 kts 316°
2026-05-04 12:28 63.53581 44.47793 33840 ft 432 kts 316°
2026-05-04 12:29 63.58205 44.39244 33844 ft 432 kts 316°
2026-05-04 12:29 63.62858 44.30608 33839 ft 433 kts 315°
2026-05-04 12:30 63.67485 44.21982 33846 ft 433 kts 315°
2026-05-04 12:30 63.72030 44.13468 33843 ft 433 kts 315°
2026-05-04 12:31 63.76758 44.04574 33854 ft 432 kts 315°
2026-05-04 12:31 63.80589 43.97338 33832 ft 432 kts 315°
2026-05-04 12:32 63.88250 43.82786 33838 ft 432 kts 315°
2026-05-04 12:33 63.92092 43.75448 33836 ft 431 kts 315°
2026-05-04 12:33 63.96670 43.66669 33838 ft 431 kts 315°
2026-05-04 12:34 64.01273 43.57804 33838 ft 431 kts 315°
2026-05-04 12:34 64.05820 43.49004 33839 ft 430 kts 314°
2026-05-04 12:35 64.10366 43.40171 33835 ft 430 kts 314°
2026-05-04 12:35 64.14797 43.31523 33838 ft 430 kts 314°
2026-05-04 12:36 64.19467 43.22422 33836 ft 430 kts 314°
2026-05-04 12:36 64.24037 43.13501 33837 ft 429 kts 314°
2026-05-04 12:37 64.28613 43.04520 33829 ft 429 kts 314°
2026-05-04 12:37 64.33147 42.95577 33830 ft 429 kts 314°
2026-05-04 12:38 64.37662 42.86633 33832 ft 429 kts 314°
2026-05-04 12:38 64.42207 42.77591 33829 ft 429 kts 314°
2026-05-04 12:39 64.46715 42.68561 33831 ft 429 kts 314°
2026-05-04 12:39 64.51226 42.59464 33829 ft 429 kts 314°
2026-05-04 12:40 64.55741 42.50322 33826 ft 430 kts 314°
2026-05-04 12:40 64.60236 42.41178 33832 ft 430 kts 314°
2026-05-04 12:41 64.64722 42.32015 33835 ft 430 kts 313°
2026-05-04 12:41 64.69223 42.22777 33818 ft 430 kts 313°
2026-05-04 12:42 64.73721 42.13503 33817 ft 431 kts 313°
2026-05-04 12:42 64.78208 42.04212 33819 ft 431 kts 313°
2026-05-04 12:43 64.82672 41.94832 33819 ft 430 kts 311°
2026-05-04 12:43 64.86958 41.85140 33820 ft 430 kts 311°
2026-05-04 12:44 64.91281 41.75295 33821 ft 430 kts 311°
2026-05-04 12:44 64.95600 41.65521 33817 ft 431 kts 311°
2026-05-04 12:45 65.00090 41.56195 33811 ft 433 kts 314°
2026-05-04 12:45 65.04685 41.47003 33811 ft 433 kts 314°
2026-05-04 12:46 65.09265 41.37748 33813 ft 432 kts 314°
2026-05-04 12:46 65.13842 41.28396 33814 ft 432 kts 314°
2026-05-04 12:47 65.18275 41.19293 33812 ft 432 kts 314°
2026-05-04 12:47 65.22754 41.10057 33815 ft 432 kts 313°
2026-05-04 12:48 65.27291 41.00614 33815 ft 432 kts 313°
2026-05-04 12:48 65.31814 40.91139 33814 ft 432 kts 313°
2026-05-04 12:49 65.36334 40.81634 33820 ft 432 kts 313°
2026-05-04 12:49 65.40135 40.73607 33819 ft 432 kts 313°
2026-05-04 12:50 65.44641 40.64050 33823 ft 432 kts 313°
2026-05-04 12:50 65.49151 40.54437 33825 ft 432 kts 313°
2026-05-04 12:51 65.53643 40.44817 33827 ft 433 kts 313°
2026-05-04 12:51 65.58150 40.35116 33825 ft 433 kts 313°
2026-05-04 12:52 65.62629 40.25438 33833 ft 433 kts 313°
2026-05-04 12:52 65.66843 40.15181 33845 ft 426 kts 304°
2026-05-04 12:53 65.70219 40.03473 33816 ft 423 kts 296°
2026-05-04 12:53 65.72904 39.90501 33822 ft 421 kts 292°
2026-05-04 12:54 65.75433 39.77609 33821 ft 422 kts 292°
2026-05-04 12:54 65.77967 39.64770 33822 ft 423 kts 292°
2026-05-04 12:55 65.80513 39.51877 33819 ft 423 kts 292°
2026-05-04 12:55 65.83064 39.38903 33818 ft 424 kts 292°
2026-05-04 12:56 65.85573 39.25871 33817 ft 424 kts 291°
2026-05-04 12:56 65.87992 39.12863 33814 ft 424 kts 291°
2026-05-04 12:57 65.90368 39.00005 33813 ft 424 kts 291°
2026-05-04 12:57 65.92789 38.86875 33811 ft 424 kts 291°
2026-05-04 12:58 65.95216 38.73641 33808 ft 423 kts 291°
2026-05-04 12:58 65.97608 38.60522 33810 ft 423 kts 291°
2026-05-04 12:59 65.99993 38.47346 33807 ft 423 kts 291°
2026-05-04 12:59 66.02355 38.34359 33812 ft 423 kts 291°
2026-05-04 13:00 66.04754 38.21153 33807 ft 423 kts 291°
2026-05-04 13:00 66.07155 38.07842 33802 ft 424 kts 291°
2026-05-04 13:01 66.09521 37.94621 33806 ft 424 kts 290°
2026-05-04 13:01 66.12015 37.80586 33804 ft 424 kts 290°
2026-05-04 13:02 66.14359 37.67306 33798 ft 425 kts 290°
2026-05-04 13:02 66.16716 37.53859 33798 ft 425 kts 290°
2026-05-04 13:03 66.19007 37.40697 33795 ft 425 kts 290°
2026-05-04 13:03 66.21335 37.27234 33784 ft 425 kts 290°
2026-05-04 13:04 66.23634 37.13855 33787 ft 424 kts 290°
2026-05-04 13:04 66.25942 37.00338 33788 ft 424 kts 289°
2026-05-04 13:05 66.28492 36.87191 33790 ft 428 kts 296°
2026-05-04 13:05 66.31216 36.76906 33781 ft 433 kts 302°
2026-05-04 13:06 66.34999 36.64945 33782 ft 434 kts 303°
2026-05-04 13:06 66.38694 36.53266 33782 ft 434 kts 303°
2026-05-04 13:07 66.42557 36.40873 33766 ft 434 kts 302°
2026-05-04 13:07 66.46239 36.28979 33762 ft 435 kts 302°
2026-05-04 13:08 66.49895 36.16964 33768 ft 434 kts 302°
2026-05-04 13:08 66.53532 36.04756 33765 ft 435 kts 301°
2026-05-04 13:09 66.57135 35.92603 33761 ft 435 kts 301°
2026-05-04 13:09 66.60800 35.80193 33760 ft 436 kts 301°
2026-05-04 13:10 66.64412 35.67910 33756 ft 437 kts 301°
2026-05-04 13:10 66.68007 35.55618 33752 ft 437 kts 301°
2026-05-04 13:11 66.71627 35.43172 33748 ft 438 kts 301°
2026-05-04 13:11 66.75208 35.30787 33743 ft 438 kts 301°
2026-05-04 13:12 66.78797 35.18302 33744 ft 439 kts 301°
2026-05-04 13:12 66.82497 35.05359 33738 ft 439 kts 301°
2026-05-04 13:13 66.86046 34.92872 33729 ft 440 kts 300°
2026-05-04 13:13 66.89616 34.80239 33735 ft 440 kts 300°
2026-05-04 13:14 66.93181 34.67550 33729 ft 441 kts 300°
2026-05-04 13:14 66.95606 34.58874 33720 ft 441 kts 300°
2026-05-04 13:15 66.98973 34.46779 33723 ft 441 kts 300°
2026-05-04 13:15 67.02609 34.33641 33709 ft 442 kts 300°
2026-05-04 13:16 67.06192 34.20613 33711 ft 442 kts 300°
2026-05-04 13:16 67.09755 34.07595 33712 ft 443 kts 300°
2026-05-04 13:17 67.13153 33.95173 33700 ft 444 kts 300°
2026-05-04 13:17 67.16696 33.82658 33700 ft 445 kts 301°
2026-05-04 13:18 67.20361 33.69745 33689 ft 445 kts 301°
2026-05-04 13:18 67.24000 33.56794 33691 ft 446 kts 300°
2026-05-04 13:19 67.27581 33.43932 33686 ft 447 kts 300°
2026-05-04 13:19 67.31186 33.30901 33686 ft 447 kts 300°
2026-05-04 13:20 67.34787 33.17812 33677 ft 448 kts 300°
2026-05-04 13:20 67.38398 33.04607 33681 ft 448 kts 300°
2026-05-04 13:21 67.42003 32.91346 33677 ft 449 kts 300°
2026-05-04 13:21 67.45614 32.77993 33673 ft 450 kts 300°
2026-05-04 13:22 67.49026 32.65204 33654 ft 450 kts 299°
2026-05-04 13:22 67.51923 32.54246 33653 ft 450 kts 299°
2026-05-04 13:23 67.55465 32.40779 33652 ft 451 kts 299°
2026-05-04 13:23 67.59020 32.27191 33652 ft 451 kts 299°
2026-05-04 13:24 67.62530 32.13691 33651 ft 452 kts 299°
2026-05-04 13:24 67.66091 31.99915 33657 ft 452 kts 299°
2026-05-04 13:25 67.71395 31.79235 33647 ft 453 kts 299°
2026-05-04 13:25 67.74694 31.66270 33649 ft 454 kts 298°
2026-05-04 13:26 67.78301 31.52008 33645 ft 454 kts 298°
2026-05-04 13:26 67.81819 31.38008 33637 ft 455 kts 298°
2026-05-04 13:27 67.85340 31.23906 33633 ft 455 kts 298°
2026-05-04 13:27 67.88823 31.09868 33632 ft 455 kts 298°
2026-05-04 13:28 67.92296 30.95776 33633 ft 456 kts 298°
2026-05-04 13:28 67.95717 30.81805 33626 ft 456 kts 298°
2026-05-04 13:29 67.99220 30.67406 33622 ft 456 kts 298°
2026-05-04 13:29 68.02654 30.53195 33617 ft 456 kts 298°
2026-05-04 13:30 68.06070 30.38971 33620 ft 457 kts 298°
2026-05-04 13:30 68.09492 30.24625 33601 ft 457 kts 298°
2026-05-04 13:31 68.12891 30.10284 33595 ft 458 kts 298°
2026-05-04 13:31 68.16301 29.95799 33595 ft 458 kts 297°
2026-05-04 13:32 68.19708 29.81230 33603 ft 459 kts 297°
2026-05-04 13:32 68.23068 29.66759 33600 ft 459 kts 297°
2026-05-04 13:33 68.26446 29.52119 33601 ft 460 kts 297°
2026-05-04 13:33 68.29830 29.37352 33600 ft 461 kts 297°
2026-05-04 13:34 68.33182 29.22625 33597 ft 461 kts 297°
2026-05-04 13:34 68.35866 29.10756 33597 ft 461 kts 297°
2026-05-04 13:35 68.40735 28.89066 33599 ft 462 kts 297°
2026-05-04 13:36 68.44105 28.73923 33590 ft 462 kts 297°
2026-05-04 13:36 68.47425 28.58911 33600 ft 462 kts 297°
2026-05-04 13:37 68.50895 28.44102 33596 ft 465 kts 302°
2026-05-04 13:37 68.55127 28.30578 33588 ft 469 kts 307°
2026-05-04 13:38 68.59607 28.16903 33587 ft 469 kts 307°
2026-05-04 13:38 68.63895 28.03650 33586 ft 470 kts 307°
2026-05-04 13:39 68.68184 27.90212 33584 ft 470 kts 307°
2026-05-04 13:39 68.72460 27.76699 33584 ft 470 kts 306°
2026-05-04 13:40 68.76741 27.63082 33582 ft 471 kts 306°
2026-05-04 13:40 68.80877 27.49848 33585 ft 471 kts 306°
2026-05-04 13:41 68.85174 27.36013 33577 ft 471 kts 306°
2026-05-04 13:41 68.89436 27.22201 33573 ft 471 kts 306°
2026-05-04 13:42 68.95704 27.01724 33563 ft 472 kts 306°
2026-05-04 13:42 68.99955 26.87722 33558 ft 473 kts 306°
2026-05-04 13:43 69.04185 26.73701 33563 ft 473 kts 306°
2026-05-04 13:43 69.07692 26.62004 33562 ft 474 kts 306°
2026-05-04 13:44 69.12629 26.45433 33557 ft 474 kts 306°
2026-05-04 13:44 69.16838 26.31200 33558 ft 475 kts 305°
2026-05-04 13:45 69.20310 26.19387 33555 ft 476 kts 305°
2026-05-04 13:45 69.24369 26.05496 33563 ft 476 kts 305°
2026-05-04 13:46 69.28678 25.90653 33563 ft 477 kts 305°
2026-05-04 13:46 69.32790 25.76308 33576 ft 476 kts 303°
2026-05-04 13:47 69.36398 25.60972 33560 ft 473 kts 298°
2026-05-04 13:47 69.39880 25.44990 33566 ft 473 kts 298°
2026-05-04 13:48 69.43324 25.29114 33562 ft 474 kts 298°
2026-05-04 13:48 69.46807 25.13078 33563 ft 475 kts 298°
2026-05-04 13:49 69.50258 24.97134 33569 ft 475 kts 298°
2026-05-04 13:49 69.53736 24.80951 33572 ft 475 kts 298°
2026-05-04 13:50 69.57175 24.64827 33579 ft 475 kts 298°
2026-05-04 13:50 69.60597 24.48654 33580 ft 476 kts 298°
2026-05-04 13:51 69.64008 24.32412 33581 ft 476 kts 298°
2026-05-04 13:51 69.67405 24.16109 33579 ft 477 kts 298°
2026-05-04 13:52 69.72475 23.91545 33576 ft 478 kts 297°
2026-05-04 13:53 69.75912 23.74731 33580 ft 478 kts 297°
2026-05-04 13:53 69.79346 23.57800 33587 ft 478 kts 297°
2026-05-04 13:54 69.84352 23.32868 33580 ft 480 kts 297°
2026-05-04 13:55 69.89362 23.07616 33587 ft 481 kts 297°
2026-05-04 13:55 69.94239 22.82746 33579 ft 482 kts 297°
2026-05-04 13:56 69.97529 22.65795 33582 ft 483 kts 297°
2026-05-04 13:57 70.02304 22.40957 33569 ft 484 kts 297°
2026-05-04 13:58 70.08656 22.07453 33563 ft 485 kts 296°
2026-05-04 13:58 70.12883 21.84859 33549 ft 484 kts 296°
2026-05-04 13:59 70.16122 21.67371 33569 ft 484 kts 296°
2026-05-04 14:00 70.20924 21.41183 33549 ft 485 kts 296°
2026-05-04 14:00 70.25692 21.14838 33545 ft 485 kts 296°
2026-05-04 14:01 70.28849 20.97210 33551 ft 485 kts 296°
2026-05-04 14:02 70.33553 20.70663 33550 ft 486 kts 295°
2026-05-04 14:02 70.36685 20.52795 33558 ft 486 kts 295°
2026-05-04 14:03 70.39795 20.34897 33557 ft 487 kts 295°
2026-05-04 14:03 70.42878 20.17001 33551 ft 487 kts 295°
2026-05-04 14:04 70.47466 19.90075 33560 ft 487 kts 295°
2026-05-04 14:04 70.50523 19.71933 33569 ft 487 kts 295°
2026-05-04 14:05 70.55089 19.44533 33561 ft 488 kts 295°
2026-05-04 14:06 70.58098 19.26277 33555 ft 488 kts 295°
2026-05-04 14:06 70.61093 19.08071 33561 ft 488 kts 296°
2026-05-04 14:07 70.64805 18.90871 33559 ft 490 kts 307°
2026-05-04 14:07 70.69118 18.74857 33561 ft 490 kts 308°
2026-05-04 14:08 70.73431 18.58926 33567 ft 490 kts 307°
2026-05-04 14:08 70.77712 18.42846 33575 ft 490 kts 307°
2026-05-04 14:09 70.84074 18.18522 33570 ft 491 kts 307°
2026-05-04 14:10 70.90414 17.93973 33574 ft 491 kts 307°
2026-05-04 14:10 70.94617 17.77543 33571 ft 491 kts 306°
2026-05-04 14:11 70.98786 17.61116 33575 ft 491 kts 306°
2026-05-04 14:11 71.05065 17.36160 33582 ft 492 kts 307°
2026-05-04 14:12 71.09238 17.19401 33582 ft 492 kts 306°
2026-05-04 14:13 71.15472 16.94127 33582 ft 493 kts 306°
2026-05-04 14:13 71.19619 16.77141 33587 ft 494 kts 306°
2026-05-04 14:14 71.23750 16.60082 33586 ft 495 kts 306°
2026-05-04 14:14 71.29922 16.34357 33595 ft 495 kts 306°
2026-05-04 14:15 71.38103 15.99758 33597 ft 495 kts 306°
2026-05-04 14:16 71.44197 15.73619 33603 ft 495 kts 306°
2026-05-04 14:17 71.50281 15.47201 33604 ft 495 kts 305°
2026-05-04 14:18 71.56282 15.20816 33607 ft 495 kts 305°
2026-05-04 14:19 71.64277 14.85152 33609 ft 495 kts 305°
2026-05-04 14:19 71.68218 14.67351 33610 ft 495 kts 305°
2026-05-04 14:20 71.72159 14.49395 33618 ft 495 kts 305°
2026-05-04 14:20 71.75428 14.34391 33613 ft 495 kts 304°
2026-05-04 14:21 71.81299 14.07175 33618 ft 496 kts 304°
2026-05-04 14:21 71.85194 13.88921 33618 ft 497 kts 304°
2026-05-04 14:22 71.89078 13.70567 33626 ft 497 kts 304°
2026-05-04 14:22 71.92956 13.52078 33620 ft 497 kts 304°
2026-05-04 14:23 71.98724 13.24280 33623 ft 498 kts 304°
2026-05-04 14:24 72.02555 13.05615 33628 ft 499 kts 303°
2026-05-04 14:24 72.06369 12.86865 33628 ft 499 kts 303°
2026-05-04 14:25 72.10183 12.67950 33628 ft 500 kts 303°
2026-05-04 14:25 72.15862 12.39469 33631 ft 500 kts 303°
2026-05-04 14:26 72.19604 12.20494 33636 ft 500 kts 303°
2026-05-04 14:26 72.23362 12.01264 33638 ft 500 kts 303°
2026-05-04 14:27 72.27095 11.81985 33638 ft 500 kts 303°
2026-05-04 14:27 72.30802 11.62658 33639 ft 500 kts 303°
2026-05-04 14:28 72.34489 11.43267 33641 ft 500 kts 303°
2026-05-04 14:28 72.38148 11.23850 33647 ft 500 kts 302°
2026-05-04 14:29 72.45430 10.84658 33652 ft 500 kts 302°
2026-05-04 14:30 72.49041 10.64949 33654 ft 501 kts 302°
2026-05-04 14:31 72.54445 10.35092 33665 ft 501 kts 302°
2026-05-04 14:32 72.61557 9.95168 33677 ft 502 kts 302°
2026-05-04 14:32 72.65093 9.75027 33678 ft 502 kts 301°
2026-05-04 14:33 72.68618 9.54737 33678 ft 502 kts 301°
2026-05-04 14:33 72.72120 9.34419 33686 ft 502 kts 301°
2026-05-04 14:34 72.75595 9.14013 33689 ft 502 kts 301°
2026-05-04 14:34 72.79044 8.93553 33689 ft 503 kts 301°
2026-05-04 14:35 72.82473 8.73027 33694 ft 503 kts 301°
2026-05-04 14:35 72.85910 8.52268 33704 ft 504 kts 301°
2026-05-04 14:36 72.89319 8.31468 33701 ft 503 kts 301°
2026-05-04 14:36 72.92696 8.10650 33715 ft 503 kts 301°
2026-05-04 14:37 72.96047 7.89779 33721 ft 502 kts 300°
2026-05-04 14:37 72.99371 7.68863 33711 ft 502 kts 300°
2026-05-04 14:38 73.02670 7.47874 33727 ft 501 kts 300°
2026-05-04 14:38 73.05943 7.26845 33728 ft 501 kts 300°
2026-05-04 14:39 73.09212 7.05645 33736 ft 502 kts 300°
2026-05-04 14:39 73.12456 6.84388 33737 ft 502 kts 299°
2026-05-04 14:40 73.17270 6.52362 33743 ft 502 kts 299°
2026-05-04 14:40 73.20471 6.30783 33749 ft 503 kts 298°
2026-05-04 14:41 73.23630 6.09255 33750 ft 503 kts 299°
2026-05-04 14:42 73.29889 5.65967 33764 ft 503 kts 298°
2026-05-04 14:42 73.33001 5.44089 33763 ft 503 kts 298°
2026-05-04 14:43 73.36076 5.22220 33772 ft 503 kts 298°
2026-05-04 14:43 73.39130 5.00258 33776 ft 503 kts 297°
2026-05-04 14:44 73.42161 4.78211 33775 ft 503 kts 297°
2026-05-04 14:44 73.45184 4.55995 33781 ft 504 kts 297°
2026-05-04 14:45 73.48170 4.33781 33791 ft 504 kts 297°
2026-05-04 14:45 73.51135 4.11458 33795 ft 504 kts 297°
2026-05-04 14:46 73.54086 3.89010 33796 ft 505 kts 296°
2026-05-04 14:46 73.57009 3.66519 33806 ft 505 kts 296°
2026-05-04 14:47 73.59920 3.43841 33808 ft 506 kts 296°
2026-05-04 14:47 73.62791 3.21185 33809 ft 506 kts 296°
2026-05-04 14:48 73.65645 2.98421 33814 ft 505 kts 296°
2026-05-04 14:48 73.68486 2.75487 33833 ft 504 kts 295°
2026-05-04 14:49 73.71264 2.52785 33838 ft 502 kts 296°
2026-05-04 14:49 73.74034 2.29865 33834 ft 501 kts 295°
2026-05-04 14:50 73.76766 2.07000 33830 ft 501 kts 295°
2026-05-04 14:50 73.79474 1.84051 33842 ft 502 kts 295°
2026-05-04 14:51 73.82177 1.60848 33852 ft 502 kts 295°
2026-05-04 14:51 73.84834 1.37741 33851 ft 502 kts 294°
2026-05-04 14:52 73.87481 1.14449 33849 ft 503 kts 294°
2026-05-04 14:52 73.90095 0.91149 33861 ft 503 kts 294°
2026-05-04 14:53 73.92697 0.67636 33868 ft 504 kts 293°
2026-05-04 14:53 73.95154 0.45144 33870 ft 504 kts 293°
2026-05-04 14:54 73.96448 0.33220 33971 ft 506 kts 293°
2026-05-04 14:54 73.97726 0.21362 34393 ft 502 kts 293°
2026-05-04 14:54 73.98975 0.09666 34876 ft 498 kts 292°
2026-05-04 14:54 74.00055 -0.02206 35133 ft 501 kts 287°
2026-05-04 14:55 74.00796 -0.14570 35321 ft 505 kts 281°
2026-05-04 14:55 74.01368 -0.27241 35534 ft 506 kts 280°
2026-05-04 14:55 74.01896 -0.39763 35858 ft 505 kts 280°
2026-05-04 14:55 74.02417 -0.52379 35863 ft 508 kts 280°
2026-05-04 14:56 74.03475 -0.77835 35898 ft 510 kts 280°
2026-05-04 14:56 74.04547 -1.03424 35901 ft 513 kts 280°
2026-05-04 14:57 74.05597 -1.28914 35903 ft 508 kts 279°
2026-05-04 14:57 74.06616 -1.54380 35915 ft 513 kts 279°
2026-05-04 14:58 74.07611 -1.80100 35903 ft 510 kts 279°
2026-05-04 14:58 74.08408 -2.01364 35913 ft 510 kts 279°
2026-05-04 14:59 74.09497 -2.31373 35912 ft 511 kts 278°
2026-05-04 15:00 74.10834 -2.69967 35914 ft 511 kts 278°
2026-05-04 15:00 74.11684 -2.95634 35930 ft 509 kts 278°
2026-05-04 15:01 74.12909 -3.34367 35932 ft 511 kts 277°
2026-05-04 15:01 74.13684 -3.60127 35933 ft 510 kts 277°
2026-05-04 15:02 74.14431 -3.85962 35939 ft 512 kts 277°
2026-05-04 15:02 74.15134 -4.11373 35931 ft 509 kts 277°
2026-05-04 15:03 74.15703 -4.32806 35949 ft 510 kts 277°
2026-05-04 15:03 74.16364 -4.58681 35951 ft 512 kts 276°
2026-05-04 15:04 74.16995 -4.84691 35951 ft 510 kts 276°
2026-05-04 15:04 74.17596 -5.10732 35959 ft 513 kts 276°
2026-05-04 15:05 74.18160 -5.36535 35958 ft 512 kts 276°
2026-05-04 15:05 74.18702 -5.62774 35957 ft 512 kts 276°
2026-05-04 15:06 74.19205 -5.88651 35966 ft 510 kts 275°
2026-05-04 15:07 74.19907 -6.27708 35969 ft 514 kts 275°
2026-05-04 15:07 74.20341 -6.54074 35991 ft 516 kts 275°
2026-05-04 15:08 74.20741 -6.80355 35982 ft 514 kts 275°
2026-05-04 15:08 74.21108 -7.06545 35993 ft 514 kts 274°
2026-05-04 15:09 74.21443 -7.32658 35982 ft 512 kts 274°
2026-05-04 15:09 74.21748 -7.58848 36003 ft 515 kts 274°
2026-05-04 15:10 74.22145 -7.98123 35997 ft 510 kts 273°
2026-05-04 15:11 74.22472 -8.37372 36025 ft 516 kts 273°
2026-05-04 15:11 74.22652 -8.63505 36009 ft 508 kts 272°
2026-05-04 15:12 74.22798 -8.89611 36034 ft 511 kts 272°
2026-05-04 15:12 74.22915 -9.15788 36039 ft 514 kts 272°
2026-05-04 15:13 74.23000 -9.42006 36046 ft 515 kts 272°
2026-05-04 15:13 74.23053 -9.68259 36046 ft 514 kts 272°
2026-05-04 15:14 74.23076 -9.94475 36048 ft 511 kts 271°
2026-05-04 15:14 74.23067 -10.20735 36072 ft 514 kts 271°
2026-05-04 15:15 74.23027 -10.46977 36064 ft 510 kts 271°
2026-05-04 15:15 74.22956 -10.73082 36091 ft 514 kts 271°
2026-05-04 15:16 74.22790 -11.12216 36097 ft 511 kts 270°
2026-05-04 15:17 74.22554 -11.51544 36105 ft 510 kts 270°
2026-05-04 15:17 74.22248 -11.90530 36130 ft 514 kts 269°
2026-05-04 15:18 74.22006 -12.16640 36124 ft 512 kts 269°
2026-05-04 15:19 74.21583 -12.55844 36139 ft 512 kts 269°
2026-05-04 15:19 74.21089 -12.95046 36155 ft 512 kts 268°
2026-05-04 15:20 74.20724 -13.21039 36156 ft 508 kts 268°
2026-05-04 15:20 74.20327 -13.46956 36170 ft 506 kts 268°
2026-05-04 15:21 74.19901 -13.72806 36191 ft 512 kts 268°
2026-05-04 15:22 74.19200 -14.11877 36202 ft 510 kts 268°
2026-05-04 15:22 74.18431 -14.50705 36203 ft 506 kts 268°
2026-05-04 15:23 74.17884 -14.76457 36232 ft 510 kts 267°
2026-05-04 15:23 74.17304 -15.02444 36218 ft 510 kts 267°
2026-05-04 15:24 74.16046 -15.54207 36247 ft 510 kts 266°
2026-05-04 15:25 74.15373 -15.79968 36262 ft 507 kts 266°
2026-05-04 15:26 74.14304 -16.18720 36265 ft 511 kts 265°
2026-05-04 15:26 74.13178 -16.56999 36272 ft 498 kts 265°
2026-05-04 15:27 74.12013 -16.94391 36302 ft 495 kts 265°
2026-05-04 15:28 74.10789 -17.31642 36312 ft 494 kts 264°
2026-05-04 15:29 74.09487 -17.69102 36323 ft 494 kts 264°
2026-05-04 15:30 74.06229 -18.55674 36343 ft 491 kts 263°
2026-05-04 15:31 74.04726 -18.92713 36358 ft 494 kts 263°
2026-05-04 15:32 74.02081 -19.54243 36362 ft 491 kts 262°
2026-05-04 15:34 73.99296 -20.15358 36381 ft 493 kts 262°
2026-05-04 15:34 73.97625 -20.51773 36392 ft 490 kts 262°
2026-05-04 15:35 73.95880 -20.88496 36382 ft 493 kts 261°
2026-05-04 15:36 73.94062 -21.25221 36398 ft 498 kts 261°
2026-05-04 15:36 73.92811 -21.49729 36399 ft 499 kts 260°
2026-05-04 15:37 73.91515 -21.74504 36392 ft 500 kts 260°
2026-05-04 15:37 73.90201 -21.99050 36394 ft 500 kts 260°
2026-05-04 15:38 73.88860 -22.23571 36387 ft 499 kts 260°
2026-05-04 15:38 73.87491 -22.48026 36390 ft 499 kts 260°
2026-05-04 15:39 73.86085 -22.72600 36397 ft 499 kts 259°
2026-05-04 15:40 73.83942 -23.09083 36415 ft 498 kts 259°
2026-05-04 15:40 73.82479 -23.33332 36416 ft 497 kts 259°
2026-05-04 15:41 73.80990 -23.57550 36418 ft 497 kts 258°
2026-05-04 15:41 73.79476 -23.81665 36422 ft 497 kts 258°
2026-05-04 15:42 73.77934 -24.05766 36424 ft 497 kts 258°
2026-05-04 15:42 73.76365 -24.29810 36426 ft 496 kts 258°
2026-05-04 15:43 73.74777 -24.53691 36436 ft 495 kts 257°
2026-05-04 15:43 73.73153 -24.77649 36446 ft 494 kts 257°
2026-05-04 15:44 73.71790 -24.97420 36444 ft 495 kts 257°
2026-05-04 15:44 73.70124 -25.21210 36454 ft 494 kts 257°
2026-05-04 15:45 73.68431 -25.44951 36465 ft 495 kts 256°
2026-05-04 15:45 73.66712 -25.68647 36474 ft 495 kts 256°
2026-05-04 15:46 73.64961 -25.92349 36490 ft 495 kts 256°
2026-05-04 15:46 73.63199 -26.15816 36496 ft 495 kts 256°
2026-05-04 15:47 73.61404 -26.39307 36516 ft 494 kts 256°
2026-05-04 15:47 73.59578 -26.62821 36507 ft 494 kts 255°
2026-05-04 15:48 73.57727 -26.86271 36520 ft 494 kts 255°
2026-05-04 15:48 73.54916 -27.21172 36517 ft 493 kts 255°
2026-05-04 15:49 73.53008 -27.44398 36529 ft 493 kts 254°
2026-05-04 15:49 73.51083 -27.67480 36530 ft 493 kts 254°
2026-05-04 15:50 73.49117 -27.90675 36544 ft 492 kts 254°
2026-05-04 15:50 73.47136 -28.13712 36554 ft 492 kts 253°
2026-05-04 15:51 73.45137 -28.36597 36565 ft 493 kts 253°
2026-05-04 15:51 73.43102 -28.59571 36571 ft 493 kts 253°
2026-05-04 15:52 73.41039 -28.82509 36583 ft 492 kts 253°
2026-05-04 15:52 73.38962 -29.05279 36591 ft 492 kts 253°
2026-05-04 15:53 73.36850 -29.28099 36591 ft 492 kts 252°
2026-05-04 15:53 73.34733 -29.50654 36598 ft 492 kts 252°
2026-05-04 15:54 73.32574 -29.73329 36587 ft 492 kts 252°
2026-05-04 15:54 73.30398 -29.95882 36581 ft 492 kts 252°
2026-05-04 15:55 73.28200 -30.18342 36575 ft 491 kts 252°
2026-05-04 15:55 73.25972 -30.40812 36562 ft 491 kts 251°
2026-05-04 15:56 73.23734 -30.63070 36548 ft 491 kts 251°
2026-05-04 15:56 73.21458 -30.85414 36541 ft 491 kts 251°
2026-05-04 15:57 73.19172 -31.07564 36539 ft 490 kts 251°
2026-05-04 15:57 73.16862 -31.29672 36528 ft 490 kts 251°
2026-05-04 15:58 73.14516 -31.51819 36518 ft 490 kts 250°
2026-05-04 15:58 73.12162 -31.73772 36521 ft 489 kts 250°
2026-05-04 15:59 73.09788 -31.95621 36508 ft 489 kts 250°
2026-05-04 15:59 73.07388 -32.17451 36510 ft 488 kts 250°
2026-05-04 16:00 73.04964 -32.39233 36511 ft 488 kts 250°
2026-05-04 16:00 73.02509 -32.61009 36502 ft 488 kts 250°
2026-05-04 16:01 73.00053 -32.82536 36501 ft 488 kts 249°
2026-05-04 16:01 72.97556 -33.04160 36499 ft 488 kts 249°
2026-05-04 16:02 72.95045 -33.25663 36499 ft 488 kts 249°
2026-05-04 16:03 72.91235 -33.57793 36492 ft 488 kts 249°
2026-05-04 16:03 72.88681 -33.79022 36486 ft 487 kts 249°
2026-05-04 16:04 72.86099 -34.00234 36500 ft 487 kts 248°
2026-05-04 16:04 72.82181 -34.31974 36490 ft 487 kts 248°
2026-05-04 16:05 72.79541 -34.53049 36502 ft 486 kts 248°
2026-05-04 16:06 72.75549 -34.84483 36491 ft 486 kts 248°
2026-05-04 16:07 72.70151 -35.26183 36483 ft 485 kts 247°
2026-05-04 16:08 72.64681 -35.67517 36482 ft 483 kts 247°
2026-05-04 16:09 72.57764 -36.18545 36476 ft 483 kts 246°
2026-05-04 16:10 72.52125 -36.59174 36467 ft 484 kts 246°
2026-05-04 16:11 72.46377 -36.99745 36461 ft 485 kts 246°
2026-05-04 16:12 72.37609 -37.60052 36445 ft 486 kts 245°
2026-05-04 16:13 72.31643 -38.00068 36449 ft 485 kts 245°
2026-05-04 16:14 72.25617 -38.39685 36444 ft 484 kts 244°
2026-05-04 16:16 72.18006 -38.88639 36457 ft 483 kts 244°
2026-05-04 16:17 72.10251 -39.37330 36459 ft 483 kts 244°
2026-05-04 16:18 72.03977 -39.75901 36459 ft 483 kts 244°
2026-05-04 16:19 71.96189 -40.23872 36464 ft 482 kts 245°
2026-05-04 16:20 71.88590 -40.71841 36469 ft 481 kts 244°
2026-05-04 16:22 71.80840 -41.19265 36473 ft 480 kts 244°
2026-05-04 16:23 71.71919 -41.72532 36476 ft 479 kts 244°
2026-05-04 16:25 71.62363 -42.28108 36474 ft 478 kts 243°
2026-05-04 16:26 71.51029 -42.92139 36485 ft 476 kts 243°
2026-05-04 16:28 71.42829 -43.37274 36492 ft 475 kts 243°
2026-05-04 16:29 71.31182 -43.99751 36503 ft 474 kts 242°
2026-05-04 16:31 71.22782 -44.43688 36509 ft 473 kts 242°
2026-05-04 16:32 71.12570 -44.95894 36512 ft 472 kts 242°
2026-05-04 16:33 71.05686 -45.30381 36515 ft 471 kts 241°
2026-05-04 16:34 71.00510 -45.55944 36514 ft 470 kts 241°
2026-05-04 16:35 70.90048 -46.06692 36519 ft 469 kts 241°
2026-05-04 16:36 70.84798 -46.31712 36524 ft 468 kts 240°
2026-05-04 16:37 70.79502 -46.56655 36520 ft 467 kts 240°
2026-05-04 16:38 70.72404 -46.89641 36516 ft 467 kts 240°
2026-05-04 16:39 70.63471 -47.30440 36512 ft 465 kts 240°
2026-05-04 16:40 70.56345 -47.62439 36518 ft 465 kts 240°
2026-05-04 16:41 70.47150 -48.03032 36506 ft 463 kts 240°
2026-05-04 16:43 70.38016 -48.42617 36405 ft 462 kts 239°
2026-05-04 16:43 70.32428 -48.66494 36492 ft 473 kts 239°
2026-05-04 16:45 70.21063 -49.14211 36473 ft 472 kts 238°
2026-05-04 16:46 70.11586 -49.53221 36450 ft 467 kts 238°
2026-05-04 16:47 70.03993 -49.84000 36424 ft 464 kts 238°
2026-05-04 16:48 69.97670 -50.05658 36409 ft 471 kts 227°
2026-05-04 16:48 69.95155 -50.11763 36408 ft 472 kts 224°
2026-05-04 16:49 69.84866 -50.35753 36379 ft 472 kts 224°
2026-05-04 16:50 69.74658 -50.59507 36377 ft 471 kts 224°
2026-05-04 16:51 69.66981 -50.77206 36363 ft 471 kts 224°
2026-05-04 16:52 69.56731 -51.00561 36369 ft 470 kts 223°
2026-05-04 16:53 69.49930 -51.15893 36379 ft 468 kts 223°
2026-05-04 16:54 69.39704 -51.38718 36379 ft 466 kts 223°
2026-05-04 16:55 69.24385 -51.72380 36367 ft 464 kts 223°
2026-05-04 16:56 69.11640 -51.99917 36337 ft 462 kts 223°
2026-05-04 16:57 69.03966 -52.16299 36332 ft 460 kts 223°
2026-05-04 16:58 68.93785 -52.37807 36339 ft 459 kts 222°
2026-05-04 17:00 68.78496 -52.69632 36327 ft 458 kts 222°
2026-05-04 17:01 68.65715 -52.95811 36320 ft 458 kts 221°
2026-05-04 17:02 68.55595 -53.16271 36314 ft 458 kts 221°
2026-05-04 17:03 68.48217 -53.31038 36317 ft 458 kts 221°
2026-05-04 17:03 68.40494 -53.46366 36314 ft 457 kts 220°
2026-05-04 17:04 68.30211 -53.66576 36317 ft 457 kts 220°
2026-05-04 17:05 68.19888 -53.86632 36312 ft 457 kts 220°
2026-05-04 17:06 68.12141 -54.01534 36309 ft 457 kts 219°
2026-05-04 17:07 68.05202 -54.14775 36302 ft 458 kts 219°
2026-05-04 17:07 67.99161 -54.26222 36306 ft 458 kts 219°
2026-05-04 17:08 67.91350 -54.40914 36295 ft 458 kts 219°
2026-05-04 17:09 67.86142 -54.50640 36285 ft 458 kts 219°
2026-05-04 17:09 67.80920 -54.60338 36296 ft 458 kts 218°
2026-05-04 17:10 67.68029 -54.84028 36289 ft 446 kts 220°
2026-05-04 17:11 67.62910 -54.93370 36280 ft 448 kts 220°
2026-05-04 17:12 67.55182 -55.07365 36282 ft 451 kts 220°
2026-05-04 17:13 67.42238 -55.30539 36268 ft 453 kts 219°
2026-05-04 17:14 67.31807 -55.48987 36262 ft 453 kts 219°
2026-05-04 17:15 67.23963 -55.62731 36261 ft 453 kts 219°
2026-05-04 17:16 67.13520 -55.80859 36252 ft 453 kts 219°
2026-05-04 17:17 67.03087 -55.98781 36249 ft 452 kts 218°
2026-05-04 17:18 66.92612 -56.16586 36252 ft 452 kts 218°
2026-05-04 17:19 66.82106 -56.34258 36241 ft 452 kts 218°
2026-05-04 17:20 66.71575 -56.51787 36236 ft 452 kts 217°
2026-05-04 17:20 66.63685 -56.64802 36232 ft 452 kts 217°
2026-05-04 17:21 66.53142 -56.82036 36230 ft 452 kts 217°
2026-05-04 17:22 66.47870 -56.90589 36227 ft 452 kts 216°
2026-05-04 17:23 66.37276 -57.07641 36227 ft 452 kts 216°
2026-05-04 17:24 66.29346 -57.20293 36221 ft 452 kts 216°
2026-05-04 17:25 66.18778 -57.37004 36222 ft 451 kts 216°
2026-05-04 17:26 66.08174 -57.53607 36219 ft 450 kts 215°
2026-05-04 17:27 65.94993 -57.74009 36210 ft 444 kts 215°
2026-05-04 17:28 65.84472 -57.90178 36214 ft 449 kts 214°
2026-05-04 17:29 65.68496 -58.14280 36203 ft 451 kts 214°
2026-05-04 17:31 65.55195 -58.34124 36199 ft 448 kts 214°
2026-05-04 17:32 65.42839 -58.52346 36190 ft 446 kts 213°
2026-05-04 17:33 65.32255 -58.67792 36189 ft 444 kts 213°
2026-05-04 17:34 65.21666 -58.83101 36174 ft 444 kts 213°
2026-05-04 17:35 65.08457 -59.01994 36169 ft 443 kts 213°
2026-05-04 17:36 65.03168 -59.09496 36165 ft 443 kts 213°
2026-05-04 17:36 64.97893 -59.16943 36158 ft 437 kts 213°
2026-05-04 17:37 64.92700 -59.24238 36153 ft 432 kts 213°
2026-05-04 17:37 64.87538 -59.31463 36155 ft 432 kts 213°
2026-05-04 17:38 64.82370 -59.38664 36149 ft 432 kts 213°
2026-05-04 17:38 64.77194 -59.45841 36148 ft 433 kts 213°
2026-05-04 17:39 64.69397 -59.56592 36141 ft 433 kts 212°
2026-05-04 17:39 64.64187 -59.63734 36132 ft 433 kts 212°
2026-05-04 17:40 64.59008 -59.70804 36124 ft 433 kts 212°
2026-05-04 17:40 64.53789 -59.77895 36120 ft 433 kts 212°
2026-05-04 17:41 64.48589 -59.84930 36128 ft 432 kts 212°
2026-05-04 17:41 64.43393 -59.91927 36123 ft 432 kts 212°
2026-05-04 17:42 64.38209 -59.98878 36121 ft 431 kts 212°
2026-05-04 17:42 64.33032 -60.05789 36116 ft 431 kts 211°
2026-05-04 17:43 64.27831 -60.12702 36105 ft 430 kts 211°
2026-05-04 17:43 64.22649 -60.19559 36090 ft 430 kts 211°
2026-05-04 17:44 64.17456 -60.26401 36097 ft 430 kts 211°
2026-05-04 17:44 64.12280 -60.33189 36097 ft 429 kts 211°
2026-05-04 17:45 64.07109 -60.39943 36090 ft 429 kts 211°
2026-05-04 17:45 64.01897 -60.46722 36087 ft 429 kts 211°
2026-05-04 17:46 63.96707 -60.53442 36079 ft 429 kts 211°
2026-05-04 17:46 63.91531 -60.60116 36079 ft 429 kts 210°
2026-05-04 17:47 63.86329 -60.66793 36075 ft 429 kts 210°
2026-05-04 17:47 63.81143 -60.73423 36069 ft 429 kts 210°
2026-05-04 17:48 63.75918 -60.80074 36068 ft 429 kts 210°
2026-05-04 17:48 63.70725 -60.86655 36055 ft 428 kts 210°
2026-05-04 17:49 63.65530 -60.93211 36055 ft 428 kts 210°
2026-05-04 17:49 63.60324 -60.99753 36048 ft 428 kts 209°
2026-05-04 17:50 63.55143 -61.06236 36046 ft 428 kts 209°
2026-05-04 17:50 63.49940 -61.12721 36048 ft 428 kts 209°
2026-05-04 17:51 63.44728 -61.19188 36044 ft 428 kts 209°
2026-05-04 17:51 63.39499 -61.25650 36041 ft 427 kts 208°
2026-05-04 17:52 63.34310 -61.32035 36043 ft 427 kts 208°
2026-05-04 17:52 63.29082 -61.38442 36017 ft 427 kts 208°
2026-05-04 17:53 63.23902 -61.44763 36033 ft 427 kts 208°
2026-05-04 17:53 63.18680 -61.51108 36030 ft 427 kts 208°
2026-05-04 17:54 63.13459 -61.57428 36030 ft 427 kts 208°
2026-05-04 17:54 63.08252 -61.63704 36007 ft 427 kts 208°
2026-05-04 17:55 63.03012 -61.69993 36005 ft 427 kts 207°
2026-05-04 17:55 62.97794 -61.76230 36006 ft 427 kts 207°
2026-05-04 17:56 62.92614 -61.82397 36007 ft 427 kts 207°
2026-05-04 17:56 62.87389 -61.88593 36002 ft 427 kts 207°
2026-05-04 17:57 62.82135 -61.94797 36016 ft 427 kts 207°
2026-05-04 17:57 62.76913 -62.00938 36016 ft 427 kts 207°
2026-05-04 17:58 62.71690 -62.07056 35998 ft 427 kts 207°
2026-05-04 17:58 62.66468 -62.13147 35998 ft 427 kts 207°
2026-05-04 17:59 62.61230 -62.19233 35992 ft 427 kts 206°
2026-05-04 18:00 62.53375 -62.28314 35993 ft 427 kts 206°
2026-05-04 18:00 62.48103 -62.34377 35994 ft 427 kts 206°
2026-05-04 18:01 62.42880 -62.40360 35990 ft 427 kts 206°
2026-05-04 18:01 62.37600 -62.46386 35988 ft 427 kts 206°
2026-05-04 18:02 62.29727 -62.55324 35983 ft 427 kts 206°
2026-05-04 18:02 62.24474 -62.61258 35981 ft 428 kts 206°
2026-05-04 18:03 62.19212 -62.67180 35979 ft 428 kts 205°
2026-05-04 18:03 62.13914 -62.73117 35982 ft 428 kts 205°
2026-05-04 18:04 62.08657 -62.78986 35978 ft 428 kts 205°
2026-05-04 18:05 62.00720 -62.87802 35979 ft 428 kts 205°
2026-05-04 18:05 61.95436 -62.93644 35980 ft 429 kts 205°
2026-05-04 18:06 61.87502 -63.02371 35973 ft 429 kts 205°
2026-05-04 18:06 61.82166 -63.08211 35973 ft 429 kts 205°
2026-05-04 18:07 61.76883 -63.13971 35976 ft 430 kts 205°
2026-05-04 18:07 61.71556 -63.19757 35973 ft 430 kts 204°
2026-05-04 18:08 61.66257 -63.25489 35972 ft 430 kts 204°
2026-05-04 18:08 61.60931 -63.31229 35975 ft 430 kts 204°
2026-05-04 18:09 61.50276 -63.42644 35966 ft 431 kts 204°
2026-05-04 18:10 61.44940 -63.48327 35968 ft 431 kts 204°
2026-05-04 18:10 61.39581 -63.54014 35965 ft 431 kts 204°
2026-05-04 18:11 61.34232 -63.59667 35966 ft 431 kts 204°
2026-05-04 18:11 61.28896 -63.65285 35966 ft 431 kts 204°
2026-05-04 18:12 61.24427 -63.69974 35965 ft 432 kts 204°
2026-05-04 18:12 61.19061 -63.75584 35964 ft 432 kts 204°
2026-05-04 18:13 61.13666 -63.81202 35965 ft 432 kts 203°
2026-05-04 18:14 61.05618 -63.89544 35963 ft 432 kts 203°
2026-05-04 18:14 61.00244 -63.95088 35962 ft 432 kts 203°
2026-05-04 18:15 60.89471 -64.06137 35961 ft 433 kts 203°
2026-05-04 18:16 60.84077 -64.11639 35960 ft 433 kts 203°
2026-05-04 18:16 60.78670 -64.17132 35960 ft 433 kts 203°
2026-05-04 18:17 60.70582 -64.25311 35960 ft 433 kts 203°
2026-05-04 18:18 60.62436 -64.33501 35957 ft 433 kts 203°
2026-05-04 18:18 60.57030 -64.38912 35963 ft 434 kts 203°
2026-05-04 18:19 60.48934 -64.46976 35953 ft 434 kts 202°
2026-05-04 18:19 60.43503 -64.52361 35951 ft 434 kts 202°
2026-05-04 18:20 60.38061 -64.57735 35960 ft 434 kts 202°
2026-05-04 18:20 60.32660 -64.63050 35946 ft 435 kts 202°
2026-05-04 18:21 60.27212 -64.68393 35948 ft 435 kts 202°
2026-05-04 18:21 60.21752 -64.73724 35935 ft 435 kts 202°
2026-05-04 18:22 60.16306 -64.79025 35931 ft 435 kts 202°
2026-05-04 18:22 60.10866 -64.84300 35928 ft 436 kts 202°
2026-05-04 18:23 60.05397 -64.89583 35920 ft 436 kts 202°
2026-05-04 18:23 59.99916 -64.94857 35917 ft 436 kts 202°
2026-05-04 18:24 59.94449 -65.00099 35903 ft 436 kts 202°
2026-05-04 18:24 59.88983 -65.05320 35902 ft 436 kts 202°
2026-05-04 18:25 59.83522 -65.10519 35896 ft 437 kts 202°
2026-05-04 18:25 59.78010 -65.15747 35884 ft 437 kts 202°
2026-05-04 18:26 59.72510 -65.20945 35871 ft 437 kts 201°
2026-05-04 18:26 59.67032 -65.26101 35861 ft 437 kts 201°
2026-05-04 18:27 59.61583 -65.31213 35883 ft 437 kts 201°
2026-05-04 18:27 59.56066 -65.36368 35862 ft 437 kts 201°
2026-05-04 18:28 59.50568 -65.41489 35856 ft 438 kts 201°
2026-05-04 18:28 59.45043 -65.46616 35859 ft 438 kts 201°
2026-05-04 18:29 59.39496 -65.51743 35858 ft 438 kts 201°
2026-05-04 18:29 59.33998 -65.56808 35862 ft 439 kts 201°
2026-05-04 18:30 59.25680 -65.64435 35845 ft 439 kts 201°
2026-05-04 18:31 59.20151 -65.69483 35852 ft 439 kts 201°
2026-05-04 18:31 59.14686 -65.74454 35847 ft 440 kts 201°
2026-05-04 18:32 59.09104 -65.79514 35848 ft 440 kts 201°
2026-05-04 18:32 59.03575 -65.84507 35845 ft 440 kts 201°
2026-05-04 18:33 58.98044 -65.89485 35845 ft 440 kts 201°
2026-05-04 18:33 58.92478 -65.94476 35841 ft 441 kts 201°
2026-05-04 18:34 58.86908 -65.99453 35838 ft 441 kts 200°
2026-05-04 18:34 58.81306 -66.04440 35838 ft 442 kts 200°
2026-05-04 18:35 58.75757 -66.09364 35833 ft 442 kts 200°
2026-05-04 18:35 58.70130 -66.14337 35832 ft 442 kts 200°
2026-05-04 18:36 58.64554 -66.19250 35834 ft 443 kts 200°
2026-05-04 18:36 58.58940 -66.24178 35830 ft 443 kts 200°
2026-05-04 18:37 58.53328 -66.29087 35825 ft 444 kts 200°
2026-05-04 18:37 58.47722 -66.33972 35821 ft 444 kts 200°
2026-05-04 18:38 58.42090 -66.38864 35819 ft 444 kts 200°
2026-05-04 18:38 58.36467 -66.43731 35813 ft 444 kts 200°
2026-05-04 18:39 58.30892 -66.48539 35815 ft 444 kts 200°
2026-05-04 18:39 58.25263 -66.53377 35810 ft 445 kts 200°
2026-05-04 18:40 58.19593 -66.58233 35818 ft 445 kts 200°
2026-05-04 18:40 58.13949 -66.63050 35796 ft 446 kts 200°
2026-05-04 18:41 58.08278 -66.67874 35817 ft 446 kts 200°
2026-05-04 18:41 58.02609 -66.72679 35797 ft 447 kts 200°
2026-05-04 18:42 57.97010 -66.77407 35810 ft 447 kts 200°
2026-05-04 18:42 57.91340 -66.82180 35807 ft 447 kts 200°
2026-05-04 18:43 57.85644 -66.86959 35802 ft 448 kts 200°
2026-05-04 18:43 57.79949 -66.91720 35802 ft 448 kts 200°
2026-05-04 18:44 57.75089 -66.95771 35799 ft 448 kts 200°
2026-05-04 18:44 57.69423 -67.00701 35804 ft 451 kts 204°
2026-05-04 18:45 57.64048 -67.06948 35804 ft 454 kts 208°
2026-05-04 18:45 57.58731 -67.13281 35798 ft 455 kts 208°
2026-05-04 18:46 57.53393 -67.19580 35798 ft 455 kts 207°
2026-05-04 18:46 57.48036 -67.25859 35799 ft 455 kts 207°
2026-05-04 18:47 57.42665 -67.32128 35791 ft 455 kts 207°
2026-05-04 18:47 57.37267 -67.38406 35799 ft 455 kts 207°
2026-05-04 18:48 57.31937 -67.44584 35787 ft 456 kts 207°
2026-05-04 18:48 57.26539 -67.50819 35792 ft 456 kts 207°
2026-05-04 18:49 57.21118 -67.57060 35784 ft 457 kts 207°
2026-05-04 18:49 57.15725 -67.63246 35788 ft 458 kts 207°
2026-05-04 18:50 57.10329 -67.69414 35780 ft 458 kts 207°
2026-05-04 18:50 57.04898 -67.75601 35784 ft 458 kts 207°
2026-05-04 18:51 56.99455 -67.81780 35781 ft 459 kts 207°
2026-05-04 18:51 56.94028 -67.87920 35775 ft 459 kts 207°
2026-05-04 18:52 56.88596 -67.94043 35775 ft 460 kts 207°
2026-05-04 18:52 56.83153 -68.00158 35771 ft 460 kts 207°
2026-05-04 18:53 56.77677 -68.06288 35771 ft 461 kts 207°
2026-05-04 18:53 56.72220 -68.12377 35772 ft 461 kts 207°
2026-05-04 18:54 56.66714 -68.18498 35766 ft 462 kts 207°
2026-05-04 18:54 56.61248 -68.24555 35766 ft 463 kts 207°
2026-05-04 18:55 56.55741 -68.30636 35767 ft 463 kts 207°
2026-05-04 18:55 56.47447 -68.39754 35755 ft 464 kts 207°
2026-05-04 18:56 56.41958 -68.45763 35759 ft 465 kts 207°
2026-05-04 18:56 56.36411 -68.51814 35749 ft 465 kts 207°
2026-05-04 18:57 56.30868 -68.57840 35752 ft 465 kts 207°
2026-05-04 18:57 56.25299 -68.63875 35751 ft 465 kts 207°
2026-05-04 18:58 56.19750 -68.69867 35747 ft 466 kts 207°
2026-05-04 18:58 56.14219 -68.75818 35745 ft 466 kts 207°
2026-05-04 18:59 56.08678 -68.81760 35747 ft 466 kts 207°
2026-05-04 18:59 56.03072 -68.87753 35735 ft 467 kts 207°
2026-05-04 19:00 55.97502 -68.93686 35733 ft 468 kts 207°
2026-05-04 19:00 55.91917 -68.99615 35730 ft 468 kts 207°
2026-05-04 19:01 55.86305 -69.05552 35727 ft 469 kts 207°
2026-05-04 19:01 55.80539 -69.11630 35727 ft 469 kts 207°
2026-05-04 19:02 55.74932 -69.17523 35723 ft 469 kts 207°
2026-05-04 19:02 55.69311 -69.23408 35722 ft 469 kts 207°
2026-05-04 19:03 55.63674 -69.29291 35721 ft 470 kts 207°
2026-05-04 19:03 55.58040 -69.35152 35722 ft 470 kts 207°
2026-05-04 19:04 55.52404 -69.40993 35724 ft 470 kts 207°
2026-05-04 19:04 55.46793 -69.46791 35728 ft 470 kts 207°
2026-05-04 19:05 55.41127 -69.52625 35719 ft 470 kts 207°
2026-05-04 19:05 55.35472 -69.58429 35720 ft 471 kts 207°
2026-05-04 19:06 55.29834 -69.64196 35719 ft 471 kts 207°
2026-05-04 19:06 55.24182 -69.69958 35719 ft 471 kts 207°
2026-05-04 19:07 55.18502 -69.75728 35718 ft 472 kts 207°
2026-05-04 19:07 55.12801 -69.81501 35718 ft 472 kts 207°
2026-05-04 19:08 55.07158 -69.87197 35719 ft 472 kts 207°
2026-05-04 19:08 55.01455 -69.92933 35716 ft 472 kts 207°
2026-05-04 19:09 54.95771 -69.98633 35715 ft 472 kts 207°
2026-05-04 19:09 54.90055 -70.04345 35715 ft 472 kts 207°
2026-05-04 19:10 54.84372 -70.10006 35717 ft 472 kts 207°
2026-05-04 19:10 54.78686 -70.15651 35714 ft 472 kts 207°
2026-05-04 19:11 54.72962 -70.21315 35714 ft 473 kts 207°
2026-05-04 19:11 54.68213 -70.26000 35712 ft 473 kts 207°
2026-05-04 19:12 54.59600 -70.34465 35711 ft 473 kts 207°
2026-05-04 19:13 54.53898 -70.40046 35709 ft 473 kts 207°
2026-05-04 19:13 54.48167 -70.45637 35700 ft 474 kts 207°
2026-05-04 19:14 54.42433 -70.51213 35700 ft 473 kts 207°
2026-05-04 19:14 54.36691 -70.56780 35698 ft 474 kts 207°
2026-05-04 19:15 54.30958 -70.62319 35691 ft 474 kts 207°
2026-05-04 19:15 54.25278 -70.67789 35684 ft 474 kts 207°
2026-05-04 19:16 54.19532 -70.73305 35666 ft 474 kts 207°
2026-05-04 19:16 54.13853 -70.78740 35684 ft 474 kts 207°
2026-05-04 19:17 54.08152 -70.84178 35663 ft 474 kts 207°
2026-05-04 19:17 54.02457 -70.89592 35683 ft 474 kts 207°
2026-05-04 19:18 53.96579 -70.95164 35665 ft 474 kts 207°
2026-05-04 19:18 53.90903 -71.00526 35658 ft 474 kts 207°
2026-05-04 19:19 53.85064 -71.06024 35667 ft 474 kts 207°
2026-05-04 19:19 53.79350 -71.11391 35663 ft 474 kts 207°
2026-05-04 19:20 53.73487 -71.16876 35670 ft 475 kts 207°
2026-05-04 19:20 53.67664 -71.22309 35674 ft 475 kts 207°
2026-05-04 19:21 53.61814 -71.27749 35673 ft 475 kts 207°
2026-05-04 19:21 53.56119 -71.33027 35668 ft 476 kts 207°
2026-05-04 19:22 53.50131 -71.38557 35672 ft 476 kts 207°
2026-05-04 19:22 53.44300 -71.43927 35674 ft 476 kts 207°
2026-05-04 19:23 53.38488 -71.49265 35677 ft 477 kts 207°
2026-05-04 19:23 53.32652 -71.54608 35672 ft 477 kts 207°
2026-05-04 19:24 53.26834 -71.59915 35680 ft 477 kts 207°
2026-05-04 19:24 53.20989 -71.65232 35674 ft 478 kts 207°
2026-05-04 19:25 53.15145 -71.70529 35686 ft 478 kts 207°
2026-05-04 19:25 53.09319 -71.75795 35676 ft 478 kts 207°
2026-05-04 19:26 53.03455 -71.81079 35675 ft 478 kts 207°
2026-05-04 19:26 52.97629 -71.86313 35677 ft 479 kts 207°
2026-05-04 19:27 52.93046 -71.90418 35674 ft 479 kts 208°
2026-05-04 19:27 52.87188 -71.95650 35675 ft 479 kts 207°
2026-05-04 19:28 52.81313 -72.00883 35676 ft 480 kts 207°
2026-05-04 19:28 52.75430 -72.06105 35674 ft 480 kts 208°
2026-05-04 19:29 52.69516 -72.11339 35672 ft 480 kts 208°
2026-05-04 19:29 52.63640 -72.16524 35673 ft 481 kts 208°
2026-05-04 19:30 52.57873 -72.21597 35669 ft 480 kts 208°
2026-05-04 19:30 52.51987 -72.26759 35669 ft 480 kts 208°
2026-05-04 19:31 52.46063 -72.31938 35667 ft 480 kts 208°
2026-05-04 19:31 52.40158 -72.37083 35664 ft 480 kts 208°
2026-05-04 19:32 52.34266 -72.42203 35663 ft 481 kts 208°
2026-05-04 19:32 52.28352 -72.47326 35657 ft 481 kts 208°
2026-05-04 19:33 52.22458 -72.52416 35655 ft 481 kts 208°
2026-05-04 19:33 52.16637 -72.57429 35650 ft 482 kts 208°
2026-05-04 19:34 52.10581 -72.62628 35649 ft 482 kts 208°
2026-05-04 19:34 52.04642 -72.67712 35645 ft 483 kts 208°
2026-05-04 19:35 51.98673 -72.72805 35640 ft 483 kts 208°
2026-05-04 19:35 51.92748 -72.77843 35642 ft 483 kts 208°
2026-05-04 19:36 51.86781 -72.82903 35645 ft 483 kts 208°
2026-05-04 19:36 51.80813 -72.87949 35642 ft 483 kts 208°
2026-05-04 19:37 51.74875 -72.92957 35650 ft 483 kts 208°
2026-05-04 19:37 51.68926 -72.97957 35651 ft 483 kts 208°
2026-05-04 19:38 51.62947 -73.02967 35651 ft 482 kts 208°
2026-05-04 19:38 51.56991 -73.07944 35654 ft 483 kts 208°
2026-05-04 19:39 51.51040 -73.12900 35653 ft 483 kts 208°
2026-05-04 19:39 51.45077 -73.17853 35657 ft 483 kts 208°
2026-05-04 19:40 51.39115 -73.22791 35659 ft 483 kts 208°
2026-05-04 19:40 51.33060 -73.27790 35654 ft 484 kts 208°
2026-05-04 19:41 51.27186 -73.32625 35658 ft 484 kts 208°
2026-05-04 19:41 51.21192 -73.37544 35655 ft 485 kts 208°
2026-05-04 19:42 51.15164 -73.42477 35652 ft 485 kts 208°
2026-05-04 19:42 51.09165 -73.47373 35657 ft 485 kts 208°
2026-05-04 19:43 51.03162 -73.52256 35653 ft 485 kts 208°
2026-05-04 19:43 50.97154 -73.57130 35655 ft 486 kts 208°
2026-05-04 19:44 50.91124 -73.62007 35655 ft 486 kts 208°
2026-05-04 19:44 50.88063 -73.64478 35793 ft 489 kts 208°
2026-05-04 19:44 50.85035 -73.66919 36159 ft 488 kts 208°
2026-05-04 19:44 50.82168 -73.69226 36556 ft 487 kts 208°
2026-05-04 19:45 50.79177 -73.71629 36973 ft 485 kts 208°
2026-05-04 19:45 50.76161 -73.74048 37382 ft 484 kts 208°
2026-05-04 19:45 50.73147 -73.76463 37600 ft 485 kts 208°
2026-05-04 19:46 50.67132 -73.81273 37628 ft 487 kts 208°
2026-05-04 19:46 50.61078 -73.86100 37633 ft 483 kts 208°
2026-05-04 19:47 50.55100 -73.90851 37624 ft 482 kts 208°
2026-05-04 19:47 50.49452 -73.95327 37618 ft 481 kts 208°
2026-05-04 19:48 50.43488 -74.00041 37640 ft 481 kts 208°
2026-05-04 19:48 50.38432 -74.04028 37624 ft 482 kts 208°
2026-05-04 19:49 50.32423 -74.08754 37614 ft 483 kts 208°
2026-05-04 19:49 50.26419 -74.13462 37631 ft 484 kts 208°
2026-05-04 19:50 50.20362 -74.18199 37638 ft 485 kts 208°
2026-05-04 19:50 50.14134 -74.23055 37613 ft 486 kts 208°
2026-05-04 19:51 50.09032 -74.27021 37628 ft 486 kts 208°
2026-05-04 19:51 50.02844 -74.31821 37614 ft 486 kts 208°
2026-05-04 19:52 49.96726 -74.36552 37605 ft 486 kts 208°
2026-05-04 19:52 49.90910 -74.41037 37596 ft 486 kts 208°
2026-05-04 19:53 49.84759 -74.45770 37588 ft 485 kts 208°
2026-05-04 19:53 49.78835 -74.50315 37586 ft 485 kts 208°
2026-05-04 19:54 49.72773 -74.54999 37587 ft 484 kts 208°
2026-05-04 19:54 49.66920 -74.59531 37593 ft 483 kts 208°
2026-05-04 19:55 49.60856 -74.64212 37604 ft 482 kts 208°
2026-05-04 19:55 49.54964 -74.68743 37614 ft 482 kts 208°
2026-05-04 19:56 49.48958 -74.73347 37622 ft 482 kts 208°
2026-05-04 19:56 49.42917 -74.77966 37631 ft 481 kts 208°
2026-05-04 19:57 49.36886 -74.82564 37637 ft 481 kts 208°
2026-05-04 19:57 49.30887 -74.87125 37635 ft 481 kts 208°
2026-05-04 19:58 49.24699 -74.91817 37632 ft 482 kts 208°
2026-05-04 19:58 49.19673 -74.95618 37633 ft 482 kts 209°
2026-05-04 19:59 49.13675 -75.00144 37634 ft 482 kts 209°
2026-05-04 19:59 49.07673 -75.04660 37635 ft 482 kts 209°
2026-05-04 20:00 49.01574 -75.09237 37635 ft 482 kts 209°
2026-05-04 20:00 48.95593 -75.13712 37634 ft 481 kts 209°
2026-05-04 20:01 48.89579 -75.18199 37634 ft 481 kts 209°
2026-05-04 20:01 48.83555 -75.22683 37631 ft 481 kts 209°
2026-05-04 20:01 48.80523 -75.24935 37741 ft 483 kts 209°
2026-05-04 20:02 48.77513 -75.27168 38095 ft 482 kts 208°
2026-05-04 20:02 48.74512 -75.29391 38477 ft 480 kts 208°
2026-05-04 20:02 48.71520 -75.31604 38801 ft 478 kts 208°
2026-05-04 20:02 48.68494 -75.33839 39105 ft 477 kts 208°
2026-05-04 20:03 48.65771 -75.35848 39341 ft 477 kts 208°
2026-05-04 20:03 48.62775 -75.38057 39534 ft 478 kts 208°
2026-05-04 20:03 48.59785 -75.40259 39571 ft 480 kts 208°
2026-05-04 20:04 48.53770 -75.44676 39627 ft 479 kts 208°
2026-05-04 20:04 48.47857 -75.49008 39637 ft 476 kts 208°
2026-05-04 20:05 48.42047 -75.53251 39636 ft 474 kts 208°
2026-05-04 20:05 48.35968 -75.57680 39636 ft 473 kts 208°
2026-05-04 20:06 48.30157 -75.61905 39640 ft 472 kts 208°
2026-05-04 20:06 48.24178 -75.66240 39642 ft 472 kts 208°
2026-05-04 20:07 48.18276 -75.70508 39643 ft 472 kts 208°
2026-05-04 20:07 48.12383 -75.74758 39639 ft 472 kts 208°
2026-05-04 20:08 48.06490 -75.78998 39642 ft 472 kts 208°
2026-05-04 20:08 48.00701 -75.83152 39638 ft 472 kts 208°
2026-05-04 20:09 47.94634 -75.87495 39639 ft 472 kts 208°
2026-05-04 20:09 47.88734 -75.91706 39637 ft 472 kts 208°
2026-05-04 20:10 47.82802 -75.95930 39633 ft 472 kts 208°
2026-05-04 20:10 47.76875 -76.00140 39643 ft 472 kts 208°
2026-05-04 20:11 47.71036 -76.04277 39636 ft 472 kts 208°
2026-05-04 20:11 47.64999 -76.08543 39633 ft 472 kts 208°
2026-05-04 20:12 47.58983 -76.12783 39636 ft 472 kts 208°
2026-05-04 20:12 47.53058 -76.16949 39637 ft 472 kts 208°
2026-05-04 20:13 47.48379 -76.20232 39627 ft 472 kts 208°
2026-05-04 20:13 47.41886 -76.24776 39636 ft 472 kts 208°
2026-05-04 20:14 47.36187 -76.28754 39636 ft 472 kts 208°
2026-05-04 20:14 47.30133 -76.32969 39637 ft 472 kts 208°
2026-05-04 20:15 47.24126 -76.37142 39635 ft 472 kts 208°
2026-05-04 20:15 47.18050 -76.41351 39639 ft 472 kts 208°
2026-05-04 20:16 47.12184 -76.45405 39634 ft 472 kts 208°
2026-05-04 20:16 47.06181 -76.49544 39627 ft 472 kts 208°
2026-05-04 20:17 47.00153 -76.53688 39635 ft 472 kts 208°
2026-05-04 20:17 46.95087 -76.57164 39637 ft 472 kts 208°
2026-05-04 20:18 46.89082 -76.61275 39634 ft 472 kts 208°
2026-05-04 20:18 46.83117 -76.65347 39635 ft 471 kts 208°
2026-05-04 20:19 46.77264 -76.69334 39639 ft 471 kts 208°
2026-05-04 20:19 46.71343 -76.73358 39638 ft 471 kts 208°
2026-05-04 20:20 46.65470 -76.77338 39633 ft 471 kts 208°
2026-05-04 20:20 46.59523 -76.81359 39635 ft 471 kts 208°
2026-05-04 20:21 46.53568 -76.85376 39633 ft 471 kts 209°
2026-05-04 20:21 46.44633 -76.91385 39630 ft 471 kts 209°
2026-05-04 20:22 46.38708 -76.95358 39629 ft 471 kts 209°
2026-05-04 20:22 46.32724 -76.99360 39629 ft 470 kts 209°
2026-05-04 20:23 46.26756 -77.03342 39628 ft 470 kts 209°
2026-05-04 20:23 46.20912 -77.07233 39622 ft 470 kts 209°
2026-05-04 20:24 46.14909 -77.11219 39618 ft 470 kts 209°
2026-05-04 20:24 46.10061 -77.14432 39609 ft 469 kts 209°
2026-05-04 20:25 46.04042 -77.18412 39614 ft 469 kts 209°
2026-05-04 20:25 45.97929 -77.22444 39591 ft 469 kts 209°
2026-05-04 20:26 45.91903 -77.26410 39601 ft 469 kts 209°
2026-05-04 20:26 45.86500 -77.29957 39592 ft 469 kts 209°
2026-05-04 20:27 45.80577 -77.33837 39597 ft 468 kts 209°
2026-05-04 20:27 45.74737 -77.37655 39619 ft 468 kts 209°
2026-05-04 20:28 45.71418 -77.39821 39617 ft 468 kts 209°
2026-05-04 20:28 45.65887 -77.43424 39619 ft 468 kts 209°
2026-05-04 20:29 45.60470 -77.47438 39637 ft 461 kts 218°
2026-05-04 20:29 45.55456 -77.53071 39640 ft 454 kts 229°
2026-05-04 20:30 45.51093 -77.59559 39643 ft 452 kts 231°
2026-05-04 20:30 45.46868 -77.65958 39642 ft 452 kts 231°
2026-05-04 20:31 45.42633 -77.72303 39640 ft 452 kts 230°
2026-05-04 20:31 45.38294 -77.78747 39638 ft 452 kts 230°
2026-05-04 20:32 45.33788 -77.85413 39636 ft 452 kts 230°
2026-05-04 20:32 45.29446 -77.91825 39636 ft 450 kts 230°
2026-05-04 20:33 45.25166 -77.98127 39152 ft 441 kts 230°
2026-05-04 20:33 45.23013 -78.01295 38595 ft 439 kts 231°
2026-05-04 20:33 45.20905 -78.04394 37863 ft 439 kts 231°
2026-05-04 20:34 45.18800 -78.07487 37097 ft 438 kts 231°
2026-05-04 20:34 45.16684 -78.10590 36364 ft 436 kts 232°
2026-05-04 20:34 45.14575 -78.13676 35655 ft 435 kts 232°
2026-05-04 20:34 45.12361 -78.16692 34895 ft 438 kts 228°
2026-05-04 20:35 45.09991 -78.19356 34065 ft 444 kts 223°
2026-05-04 20:35 45.07517 -78.21884 33156 ft 446 kts 223°
2026-05-04 20:35 45.04994 -78.24449 32171 ft 448 kts 223°
2026-05-04 20:35 45.02450 -78.27038 31183 ft 449 kts 223°
2026-05-04 20:36 44.99934 -78.29607 30195 ft 451 kts 222°
2026-05-04 20:36 44.97406 -78.32189 29480 ft 445 kts 222°
2026-05-04 20:36 44.94920 -78.34731 28695 ft 441 kts 222°
2026-05-04 20:36 44.92422 -78.37284 27987 ft 434 kts 222°
2026-05-04 20:37 44.90115 -78.39643 27346 ft 428 kts 222°
2026-05-04 20:37 44.87575 -78.42240 26636 ft 422 kts 222°
2026-05-04 20:37 44.85215 -78.44653 25997 ft 418 kts 222°
2026-05-04 20:37 44.82883 -78.47035 25358 ft 413 kts 222°
2026-05-04 20:38 44.80524 -78.49445 24646 ft 413 kts 221°
2026-05-04 20:38 44.78177 -78.51842 24150 ft 416 kts 221°
2026-05-04 20:38 44.75851 -78.54214 23915 ft 416 kts 221°
2026-05-04 20:38 44.73626 -78.56477 23624 ft 414 kts 221°
2026-05-04 20:39 44.71264 -78.58876 23124 ft 413 kts 221°
2026-05-04 20:39 44.68955 -78.61218 22404 ft 410 kts 221°
2026-05-04 20:39 44.66610 -78.63594 21750 ft 404 kts 221°
2026-05-04 20:39 44.64308 -78.65921 21106 ft 399 kts 221°
2026-05-04 20:40 44.62082 -78.68172 20486 ft 395 kts 221°
2026-05-04 20:40 44.60011 -78.70265 19921 ft 391 kts 221°
2026-05-04 20:40 44.58542 -78.71749 19506 ft 388 kts 221°
2026-05-04 20:40 44.56418 -78.73895 18935 ft 385 kts 220°
2026-05-04 20:41 44.54377 -78.75956 18376 ft 382 kts 220°
2026-05-04 20:41 44.52106 -78.78243 17712 ft 379 kts 220°
2026-05-04 20:41 44.49870 -78.80492 17029 ft 376 kts 220°
2026-05-04 20:41 44.47746 -78.82627 16432 ft 372 kts 220°
2026-05-04 20:42 44.45668 -78.84717 15887 ft 371 kts 220°
2026-05-04 20:42 44.43613 -78.86781 15552 ft 371 kts 220°
2026-05-04 20:42 44.41408 -78.88993 14952 ft 370 kts 219°
2026-05-04 20:42 44.39387 -78.91019 14383 ft 368 kts 219°
2026-05-04 20:43 44.37325 -78.93084 13796 ft 364 kts 219°
2026-05-04 20:43 44.35108 -78.95300 13129 ft 360 kts 219°
2026-05-04 20:43 44.33080 -78.97326 12507 ft 355 kts 219°
2026-05-04 20:43 44.31060 -78.99346 11915 ft 351 kts 219°
2026-05-04 20:44 44.29997 -79.00407 11609 ft 348 kts 219°
2026-05-04 20:44 44.29063 -79.01338 11342 ft 346 kts 219°
2026-05-04 20:44 44.27109 -79.03284 10847 ft 340 kts 219°
2026-05-04 20:44 44.25265 -79.05218 10729 ft 322 kts 224°
2026-05-04 20:45 44.23673 -79.07312 10581 ft 306 kts 230°
2026-05-04 20:45 44.22293 -79.09415 10491 ft 291 kts 231°
2026-05-04 20:45 44.20926 -79.11489 10389 ft 277 kts 231°
2026-05-04 20:45 44.19669 -79.13395 10305 ft 263 kts 231°
2026-05-04 20:46 44.18451 -79.15238 10213 ft 249 kts 231°
2026-05-04 20:46 44.17314 -79.16957 10103 ft 237 kts 231°
2026-05-04 20:46 44.16213 -79.18624 9919 ft 228 kts 231°
2026-05-04 20:46 44.15165 -79.20209 9650 ft 223 kts 231°
2026-05-04 20:47 44.14102 -79.21816 9273 ft 222 kts 231°
2026-05-04 20:47 44.13074 -79.23371 8898 ft 221 kts 231°
2026-05-04 20:47 44.12026 -79.24953 8541 ft 219 kts 231°
2026-05-04 20:47 44.10987 -79.26519 8156 ft 219 kts 230°
2026-05-04 20:48 44.10284 -79.27575 8013 ft 218 kts 230°
2026-05-04 20:48 44.09258 -79.29117 7996 ft 218 kts 230°
2026-05-04 20:48 44.08228 -79.30666 7990 ft 218 kts 230°
2026-05-04 20:48 44.07031 -79.31980 7982 ft 224 kts 209°
2026-05-04 20:49 44.05515 -79.32520 7835 ft 233 kts 192°
2026-05-04 20:49 44.03886 -79.32628 7592 ft 234 kts 188°
2026-05-04 20:49 44.02303 -79.32660 7260 ft 232 kts 187°
2026-05-04 20:49 44.00600 -79.32690 6897 ft 231 kts 188°
2026-05-04 20:50 43.99017 -79.32732 6578 ft 229 kts 188°
2026-05-04 20:50 43.97462 -79.32781 6553 ft 222 kts 188°
2026-05-04 20:50 43.95881 -79.32842 6311 ft 231 kts 188°
2026-05-04 20:50 43.94261 -79.32903 6121 ft 233 kts 188°
2026-05-04 20:51 43.92646 -79.32967 5938 ft 230 kts 189°
2026-05-04 20:51 43.91093 -79.33098 5672 ft 218 kts 200°
2026-05-04 20:51 43.89806 -79.34047 5191 ft 208 kts 225°
2026-05-04 20:51 43.88726 -79.35412 4875 ft 202 kts 226°
2026-05-04 20:52 43.87758 -79.36748 4677 ft 192 kts 227°
2026-05-04 20:52 43.86858 -79.38036 4450 ft 186 kts 229°
2026-05-04 20:52 43.86079 -79.39171 4161 ft 182 kts 228°
2026-05-04 20:52 43.85206 -79.40444 3836 ft 180 kts 227°
2026-05-04 20:53 43.84364 -79.41676 3728 ft 169 kts 227°
2026-05-04 20:53 43.83569 -79.42840 3563 ft 164 kts 227°
2026-05-04 20:53 43.82795 -79.43971 3420 ft 161 kts 228°
2026-05-04 20:53 43.82039 -79.45080 3234 ft 157 kts 227°
2026-05-04 20:54 43.81299 -79.46168 3081 ft 152 kts 226°
2026-05-04 20:54 43.80583 -79.47211 3066 ft 146 kts 227°
2026-05-04 20:54 43.79898 -79.48211 3000 ft 139 kts 226°
2026-05-04 20:54 43.79257 -79.49143 2966 ft 132 kts 228°
2026-05-04 20:55 43.78615 -79.50084 3007 ft 136 kts 226°
2026-05-04 20:55 43.77955 -79.51052 3003 ft 142 kts 227°
2026-05-04 20:55 43.77261 -79.52064 2815 ft 141 kts 227°
2026-05-04 20:55 43.76624 -79.52996 2639 ft 131 kts 227°
2026-05-04 20:56 43.76018 -79.53882 2453 ft 119 kts 226°
2026-05-04 20:56 43.75441 -79.54720 2336 ft 124 kts 225°
2026-05-04 20:56 43.74853 -79.55577 2168 ft 122 kts 227°
2026-05-04 20:56 43.74264 -79.56437 1980 ft 121 kts 226°
2026-05-04 20:57 43.73702 -79.57261 1838 ft 121 kts 226°
2026-05-04 20:57 43.73113 -79.58114 1665 ft 122 kts 224°
2026-05-04 20:57 43.72524 -79.58971 1489 ft 122 kts 224°
2026-05-04 20:57 43.71954 -79.59821 1355 ft 120 kts 224°
2026-05-04 20:58 43.71362 -79.60675 1179 ft 128 kts 225°
2026-05-04 20:58 43.70755 -79.61584 995 ft 128 kts 224°
2026-05-04 20:58 43.70139 -79.62448 810 ft 128 kts 221°
2026-05-04 20:58 43.69554 -79.63319 658 ft 119 kts 224°
2026-05-04 20:59 43.68980 -79.64136 580 ft 111 kts 226°
2026-05-04 20:59 43.68602 -79.64687 574 ft 47 kts 226°
2026-05-04 20:59 43.68391 -79.64994 579 ft 42 kts 227°
2026-05-04 20:59 43.68205 -79.65264 575 ft 35 kts 227°
2026-05-04 21:00 43.68030 -79.65440 574 ft 29 kts 200°
2026-05-04 21:00 43.67916 -79.65484 572 ft 12 kts 188°
2026-05-04 21:00 43.67848 -79.65458 574 ft 12 kts 140°
2026-05-04 21:00 43.67854 -79.65362 574 ft 13 kts 46°
2026-05-04 21:01 43.67918 -79.65271 576 ft 13 kts 46°
2026-05-04 21:01 43.67981 -79.65181 573 ft 14 kts 46°
2026-05-04 21:01 43.68044 -79.65088 570 ft 14 kts 46°
2026-05-04 21:01 43.68103 -79.65004 579 ft 14 kts 46°
2026-05-04 21:02 43.68172 -79.64903 578 ft 14 kts 46°
2026-05-04 21:02 43.68241 -79.64802 580 ft 14 kts 46°
2026-05-04 21:02 43.68312 -79.64699 581 ft 16 kts 47°
2026-05-04 21:02 43.68394 -79.64579 574 ft 19 kts 45°
2026-05-04 21:03 43.68490 -79.64445 577 ft 20 kts 45°
2026-05-04 21:03 43.68589 -79.64303 577 ft 21 kts 51°
2026-05-04 21:03 43.68684 -79.64160 575 ft 19 kts 46°
2026-05-04 21:03 43.68779 -79.64023 574 ft 19 kts 46°
2026-05-04 21:04 43.68856 -79.63911 577 ft 15 kts 46°
2026-05-04 21:04 43.68934 -79.63798 580 ft 17 kts 46°
2026-05-04 21:04 43.68999 -79.63703 575 ft 10 kts 46°
2026-05-04 21:04 43.69022 -79.63603 578 ft 13 kts 115°
2026-05-04 21:05 43.68958 -79.63517 574 ft 13 kts 137°
2026-05-04 21:05 43.68891 -79.63431 574 ft 13 kts 137°
2026-05-04 21:05 43.68824 -79.63343 572 ft 13 kts 136°
2026-05-04 21:05 43.68756 -79.63255 570 ft 13 kts 137°
2026-05-04 21:06 43.68689 -79.63169 572 ft 13 kts 136°
2026-05-04 21:06 43.68622 -79.63081 573 ft 13 kts 137°
2026-05-04 21:06 43.68554 -79.62994 571 ft 13 kts 137°
2026-05-04 21:06 43.68489 -79.62904 574 ft 13 kts 135°
2026-05-04 21:07 43.68423 -79.62814 570 ft 13 kts 136°
2026-05-04 21:07 43.68356 -79.62730 575 ft 13 kts 138°
2026-05-04 21:07 43.68287 -79.62645 574 ft 13 kts 138°
2026-05-04 21:07 43.68223 -79.62560 575 ft 11 kts 128°
2026-05-04 21:08 43.68221 -79.62475 576 ft 9 kts 54°
2026-05-04 21:08 43.68265 -79.62420 573 ft 8 kts 42°
2026-05-04 21:08 43.68288 -79.62362 573 ft 7 kts 89°
2026-05-04 21:08 43.68266 -79.62306 570 ft 7 kts 130°
2026-05-04 21:09 43.68246 -79.62249 574 ft 7 kts 89°
2026-05-04 21:09 43.68250 -79.62193 572 ft 3 kts 87°
2026-05-04 21:09 43.68251 -79.62169 570 ft 2 kts 87°
2026-05-04 21:09 43.68251 -79.62149 566 ft 1 kts 88°
2026-05-04 21:10 43.68251 -79.62148 566 ft 0 kts 88°